     2.10           OBSERVATION DATA    G (GPS)             RINEX VERSION / TYPE
teqc 2006Apr13 CORS-ADM Account 20060629 01:04:02UTC        PGM / RUN BY / DATE
Solaris 5.9|UltraSparc IIi|cc -xarch=v9 SC5.5|=+-|*Sparc    COMMENT
teqc 2006Apr13 CORS/NGS/NOAA 20060629 01:04:01UTC           COMMENT
BIT 2 OF LLI FLAGS DATA COLLECTED UNDER A/S CONDITION       COMMENT
cnmr                                                        MARKER NAME
50512M001                                                   MARKER NUMBER
Peter Paul Camacho Commonwealth of the Northern Mariana Isl OBSERVER / AGENCY
0220233361 TRIMBLE 4700 7.29                                REC # / TYPE / VERS
0220238086 TRM33429.20+GP UNAV                              ANT # / TYPE
 -5087756.9960  3465027.2461  1664652.3620                  APPROX POSITION XYZ
        0.0000        0.0000        0.0000                  ANTENNA: DELTA H/E/N
     1     1                                                WAVELENGTH FACT L1/2
     7    C1    L1    L2    P1    P2    D1    D2            # / TYPES OF OBSERV
    30.0000                                                 INTERVAL
SNR is mapped to RINEX snr flag value [0-9]                 COMMENT
L1 & L2: min(max(int(snr_dBHz/6), 0), 9)                    COMMENT
Forced Modulo Decimation to 30 seconds                      COMMENT
  2006     6    29     0     0    0.0000000     GPS         TIME OF FIRST OBS
                                                            END OF HEADER
 06  6 29  0  0  0.0000000  0  8G 2G27G 4G29G26G24G10G 8
  19898597.6324  -27226586.27848 -21204982.72547                  19898591.8764
       497.9694
  23679483.8274   -6412499.45347  -4992354.96445                  23679481.7374
     -2045.3224
  21219224.8944  -21908240.16748 -17064168.90147                  21219221.6994
     -1470.0544
  21029692.7214  -15469538.67748 -12264727.61746                  21029689.1204
       796.8264
  21588142.8774  -13740067.97348 -10953572.18846                  21588140.2294
      1899.5614
  23217990.8004   -8753657.29847  -8185499.74544                  23217989.3994
     -2365.8744
  22057359.2144  -14670008.64548 -11330072.33946                  22057355.4824
       987.5734
  21680250.6524  -19348100.94748 -15073040.98946                  21680248.6164
      -148.4284
 06  6 29  0  0 30.0000000  0  8G 2G27G 4G29G26G24G10G 8
  19895808.5404  -27241243.23048 -21216403.73147                  19895802.3164
       479.4144
  23691189.8934   -6350975.85847  -4944414.50544                  23691188.8484
     -2056.0164
  21227658.0824  -21863924.14548 -17029636.95346                  21227655.3984
     -1484.0724
  21025183.9834  -15493232.74148 -12283190.50546                  21025180.5014
       782.9884
  21577342.4644  -13796828.65247 -10997801.27546                  21577339.4554
      1884.8634
  23231526.3534   -8682527.97047  -8130074.33644                  23231525.3344
     -2375.9824
  22051716.9954  -14699653.63848 -11353172.33846                  22051714.5844
       989.0284
  21681149.7274  -19343380.59048 -15069362.80046                  21681146.1584
      -166.0064
 06  6 29  0  1  0.0000000  0  8G 2G27G 4G29G26G24G10G 8
  19893124.1514  -27255349.85348 -21227395.90847                  19893118.4454
       461.0554
  23702958.4384   -6289135.73647  -4896227.42844                  23702956.8024
     -2066.5724
  21236170.4614  -21819192.02347 -16994780.77846                  21236168.2004
     -1497.9694
  21020752.9784  -15516516.32948 -12301333.55146                  21020750.2044
       769.3554
  21566623.9474  -13853152.29248 -11041689.80846                  21566621.0204
      1870.1514
  23245118.2534   -8611100.29347  -8074416.43344                  23245117.9994
     -2385.9084
  22046066.7064  -14729348.28547 -11376311.01246                  22046064.0034
       990.6354
  21682147.3494  -19338138.66148 -15065278.16446                  21682143.5114
      -183.4184
 06  6 29  0  1 30.0000000  0  8G 2G27G 4G29G26G24G10G 8
  19890544.8994  -27268902.33248 -21237956.28547                  19890539.5124
       442.2124
  23714785.9464   -6226977.73346  -4847792.64744                  23714784.5564
     -2077.3684
  21244762.1974  -21774041.58148 -16959598.61147                  21244760.5874
     -1512.1684
  21016400.9694  -15539387.63747 -12319155.34646                  21016397.6874
       755.2204
  21555989.6844  -13909035.86248 -11085235.42846                  21555986.6814
      1855.1854
  23258768.3864   -8539372.67247  -8018524.85645                  23258767.6754
     -2396.2304
  22040406.9984  -14759089.17848 -11399485.74846                  22040403.8184
       991.9044
  21683244.6584  -19332371.54548 -15060784.28946                  21683240.9254
      -201.2264
 06  6 29  0  2  0.0000000  0  8G 2G27G 4G29G26G24G10G 8
  19888071.9414  -27281902.18048 -21248086.04847                  19888065.7584
       424.2384
  23726674.4464   -6164505.89346  -4799113.29844                  23726672.5224
     -2087.4274
  21253433.1484  -21728476.41048 -16924093.29247                  21253430.8694
     -1525.5134
  21012126.4464  -15561850.67647 -12336659.01946                  21012123.4734
       742.1834
  21545439.0964  -13964482.00848 -11128440.21346                  21545435.4174
      1841.1334
  23272473.9734   -8467349.49647  -7962402.94845                  23272473.0444
     -2405.5524
  22034738.1794  -14788878.97448 -11422698.55446                  22034735.4334
       993.9654
  21684439.9444  -19326082.29148 -15055883.56846                  21684437.7024
      -218.1884
 06  6 29  0  2 30.0000000  0  8G 2G27G 4G29G26G24G10G 8
  19885702.5374  -27294351.66348 -21257786.94247                  19885696.6434
       405.8694
  23738621.0554   -6101725.46147  -4750193.52244                  23738619.6594
     -2097.8084
  21262182.3844  -21682500.71348 -16888268.07947                  21262179.9894
     -1539.2534
  21007928.4854  -15583909.83348 -12353847.95846                  21007925.5064
       728.6284
  21534970.3584  -14019494.10347 -11171306.76846                  21534967.2464
      1826.5534
  23286234.4944   -8395035.33247  -7906054.29845                  23286234.2694
     -2415.2104
  22029059.4044  -14818720.65048 -11445951.80846                  22029056.6324
       995.6104
  21685737.0894  -19319273.54047 -15050578.05546                  21685733.7664
      -235.6454
 06  6 29  0  3  0.0000000  0  8G 2G27G 4G29G26G24G10G 8
  19883439.9204  -27306241.84048 -21267052.01847                  19883434.0064
       386.8464
  23750629.1094   -6038630.54247  -4701028.65344                  23750626.2954
     -2108.4764
  21271010.2164  -21636107.46848 -16852117.49047                  21271008.3554
     -1553.4424
  21003808.8174  -15605558.65447 -12370717.16446                  21003806.0954
       714.6834
  21524586.1844  -14074064.05748 -11213828.80046                  21524582.9884
      1811.5534
  23300052.3684   -8322424.18847  -7849474.25545                  23300051.7544
     -2425.5224
  22023372.4124  -14848605.91548 -11469239.02146                  22023369.8344
       996.8214
  21687132.4194  -19311937.24348 -15044861.45146                  21687129.7154
      -253.4774
 06  6 29  0  3 30.0000000  0  8G 2G27G 4G29G26G24G10G 8
  19881283.0504  -27317576.69648 -21275884.38147                  19881277.3814
       368.6034
  23762693.0684   -5975227.61747  -4651623.82044                  23762691.1264
     -2118.5554
  21279917.0584  -21589302.16148 -16815645.83747                  21279915.4644
     -1566.9194
  20999765.7094  -15626803.01947 -12387271.20646                  20999763.0474
       701.5434
  21514284.8104  -14128196.82848 -11256010.16746                  21514281.8594
      1797.2174
  23313924.9724   -8249521.98747  -7792667.39744                  23313924.4334
     -2434.8734
  22017676.0414  -14878539.45848 -11492563.85746                  22017673.4564
       998.6624
  21688628.0654  -19304077.94147 -15038737.30746                  21688625.6624
      -270.6454
 06  6 29  0  4  0.0000000  0  8G 2G27G 4G29G26G24G10G 8
  19879231.6264  -27328357.05048 -21284284.66447                  19879226.0884
       350.1424
  23774816.2764   -5911520.28747  -4601981.74944                  23774814.2094
     -2128.6184
  21288902.0404  -21542087.67348 -16778855.34247                  21288899.6324
     -1580.5224
  20995799.7764  -15647646.17647 -12403512.62346                  20995797.0594
       688.2284
  21504066.5304  -14181894.41848 -11297852.42546                  21504063.9914
      1782.7254
  23327852.5774   -8176332.15647  -7735636.43044                  23327851.6984
     -2444.3024
  22011970.8854  -14908522.84048 -11515927.52646                  22011968.0284
      1000.3374
  21690223.0444  -19295697.74348 -15032207.27546                  21690220.0764
      -287.9154
 06  6 29  0  4 30.0000000  0  8G 2G27G 4G29G26G24G10G 8
  19877285.4854  -27338583.24048 -21292253.12647                  19877280.0324
       331.6804
  23786996.5614   -5847511.41347  -4552104.72544                  23786994.6314
     -2138.5404
  21297963.7784  -21494465.93348 -16741747.49847                  21297961.6134
     -1594.0824
  20991908.5624  -15668090.49648 -12419443.25746                  20991905.8814
       674.9814
  21493930.7644  -14235157.75348 -11339356.30246                  21493927.7744
      1768.3554
  23341835.1804   -8102857.44647  -7678383.42945                  23341833.9674
     -2453.8384
  22006255.7184  -14938556.82748 -11539330.63946                  22006252.9154
      1002.0464
  21691916.6484  -19286797.21148 -15025271.79346                  21691913.3864
      -305.2934
 06  6 29  0  5  0.0000000  0  8G 2G27G 4G29G26G24G10G 8
  19875446.1194  -27348249.13448 -21299784.99947                  19875440.6084
       313.0714
  23799235.4834   -5783197.88447  -4501990.31044                  23799233.4444
     -2148.6724
  21307104.3034  -21446432.81848 -16704319.10847                  21307101.8784
     -1607.7254
  20988095.4734  -15688132.09548 -12435060.07646                  20988092.0884
       661.5484
  21483878.6984  -14287981.89548 -11380517.97346                  21483875.8184
      1753.6384
  23355870.9764   -8029094.22547  -7620905.66544                  23355870.9224
     -2463.4184
  22000531.5554  -14968635.74948 -11562768.75546                  22000528.4974
      1003.6334
  21693710.1854  -19277371.59648 -15017927.14346                  21693707.3434
      -322.6864
 06  6 29  0  5 29.9990000  0  8G 2G27G 4G29G26G24G10G 8
  19873712.9494  -27357357.62748 -21306882.52447                  19873707.3994
       294.3514
  23811530.2994   -5718588.14547  -4451645.10444                  23811527.8554
     -2158.5844
  21316321.7034  -21397995.22648 -16666575.53146                  21316319.2564
     -1621.3924
  20984357.8094  -15707776.05848 -12450367.05946                  20984354.6704
       648.1984
  21473909.2574  -14340369.64748 -11421339.57146                  21473906.5964
      1739.1024
  23369960.6954   -7955050.96447  -7563209.64945                  23369960.9934
     -2472.9254
  21994798.9904  -14998762.73248 -11586244.32546                  21994795.8854
      1005.0544
  21695603.0004  -19267425.44048 -15010176.88246                  21695599.8224
      -340.2784
 06  6 29  0  5 59.9990000  0  8G 2G27G 4G29G26G24G10G 8
  19872086.8584  -27365902.13848 -21313540.57747                  19872081.5114
       275.2204
  23823882.9514   -5653672.48647  -4401061.48344                  23823881.4514
     -2169.0634
  21325617.6764  -21349144.06048 -16628509.70046                  21325615.0034
     -1635.4544
  20980695.8574  -15727018.25148 -12465360.96746                  20980692.5544
       634.5414
  21464024.2044  -14392317.56048 -11461818.47146                  21464020.8764
      1724.0634
  23384106.7274   -7880717.36447  -7505287.40644                  23384106.0194
     -2482.7344
  21989057.2344  -15028932.65148 -11609753.35946                  21989054.7144
      1006.1474
  21697595.8084  -19256951.10748 -15002015.05846                  21697593.2314
      -358.0964
 06  6 29  0  6 29.9990000  0  8G 2G27G 4G29G26G24G10G 8
  19870568.4904  -27373880.74048 -21319757.67147                  19870563.1414
       256.3874
  23836293.8134   -5588454.04547  -4350241.94944                  23836291.6214
     -2179.1164
  21334992.0234  -21299881.18148 -16590123.07046                  21334989.5904
     -1649.0674
  20977110.3544  -15745858.77148 -12480041.88146                  20977107.6474
       621.1874
  21454222.6384  -14443823.67948 -11501953.07946                  21454219.9124
      1709.4484
  23398307.0484   -7806096.66547  -7447141.47744                  23398305.1664
     -2492.2564
  21983308.6294  -15059143.51948 -11633294.29146                  21983305.8774
      1007.5104
  21699689.8144  -19245948.38748 -14993441.49846                  21699686.8134
      -375.6454
 06  6 29  0  6 59.9990000  0  8G 2G27G 4G29G26G24G10G 8
  19869157.4914  -27381296.45948 -21325536.15947                  19869152.1754
       238.0424
  23848761.5054   -5522938.88647  -4299191.18444                  23848758.7874
     -2188.5554
  21344443.8154  -21250211.49448 -16551419.43946                  21344440.9534
     -1662.1834
  20973600.5534  -15764302.92048 -12494413.94546                  20973597.6774
       608.4574
  21444504.6234  -14494891.97648 -11541746.54746                  21444501.6804
      1695.1954
  23412559.0604   -7731194.53447  -7388776.20844                  23412558.6684
     -2501.1044
  21977551.6964  -15089398.54248 -11656869.63146                  21977548.6024
      1009.3994
  21701883.5154  -19234421.17448 -14984459.25046                  21701880.9114
      -392.7304
 06  6 29  0  7 29.9990000  0  8G 2G27G 4G29G26G24G10G 8
  19867852.9064  -27388152.09648 -21330878.21947                  19867847.3804
       219.1164
  23861283.7184   -5457132.37947  -4247913.41544                  23861281.0714
     -2198.4134
  21353972.2754  -21200139.54948 -16512402.35946                  21353969.5734
     -1675.6794
  20970165.3914  -15782355.43648 -12508480.83546                  20970162.1544
       595.2394
  21434869.2424  -14545526.03548 -11581201.66446                  21434866.8834
      1680.5084
  23426865.5294   -7656015.96947  -7330195.56644                  23426865.0454
     -2510.4694
  21971784.8934  -15119700.87048 -11680481.83446                  21971781.8634
      1010.8544
  21704175.8144  -19222373.04548 -14975071.08146                  21704173.8284
      -410.2694
 06  6 29  0  7 59.9990000  0  8G 2G27G 4G29G26G24G10G 8
  19866656.2044  -27394440.75848 -21335778.48247                  19866650.7144
       200.0204
  23873863.2574   -5391030.28747  -4196405.32344                  23873860.2874
     -2208.4234
  21363578.5724  -21149660.35448 -16473067.93646                  21363575.7214
     -1689.6494
  20966806.0604  -15800011.63248 -12522238.91846                  20966802.2944
       581.7434
  21425317.9524  -14595720.01548 -11620313.85346                  21425315.1914
      1665.6014
  23441224.6814   -7580556.75547  -7271396.21344                  23441224.5784
     -2520.1124
  21966010.9374  -15150044.38548 -11704126.12346                  21966007.8574
      1011.9974
  21706569.4704  -19209797.89848 -14965272.26546                  21706566.3604
      -428.1354
 06  6 29  0  8 29.9990000  0  8G 2G27G 4G29G26G24G10G 8
  19865566.9204  -27400165.63948 -21340239.42947                  19865560.7874
       181.7194
  23886496.8884   -5324638.32247  -4144671.34244                  23886494.0004
     -2217.6564
  21373260.6944  -21098778.73148 -16433419.92946                  21373257.9624
     -1702.4274
  20963519.7954  -15817276.90048 -12535692.36346                  20963516.9244
       569.3514
  21415849.2494  -14645478.06648 -11659086.34046                  21415846.8134
      1651.6804
  23455637.6674   -7504822.31447  -7212382.42944                  23455636.4794
     -2528.8134
  21960228.4284  -15180432.16748 -11727804.91446                  21960225.4654
      1013.9504
  21709061.5534  -19196699.88548 -14955066.00746                  21709058.9714
      -445.0244
 06  6 29  0  8 59.9990000  0  8G 2G27G 4G29G26G24G10G 8
  19864583.5634  -27405331.87548 -21344265.06147                  19864578.2024
       162.8664
  23899184.1774   -5257964.00847  -4092717.36044                  23899182.2044
     -2227.2074
  21383018.6304  -21047501.41748 -16393463.60946                  21383015.8394
     -1715.8694
  20960307.7614  -15834158.20547 -12548846.61846                  20960305.2804
       556.2844
  21406462.8244  -14694805.84648 -11697523.56346                  21406459.7914
      1637.0904
  23470099.5854   -7428819.71947  -7153159.67144                  23470099.3794
     -2537.9644
  21954436.7484  -15210869.46948 -11751522.29646                  21954433.6114
      1015.3964
  21711652.5484  -19183084.60648 -14944456.69246                  21711650.0314
      -462.4174
 06  6 29  0  9 29.9990000  0  8G 2G27G 4G29G26G24G10G 8
  19863708.1024  -27409932.50948 -21347849.97647                  19863702.5374
       143.8484
  23911926.2014   -5191002.66647  -4040539.70344                  23911924.9124
     -2236.8514
  21392852.7204  -20995823.12148 -16353194.82646                  21392849.9094
     -1729.3164
  20957169.2314  -15850650.87948 -12561698.04646                  20957166.7774
       543.2574
  21397158.9134  -14743697.54548 -11735620.97946                  21397156.8664
      1622.4514
  23484615.1004   -7352544.62247  -7093724.60444                  23484613.8394
     -2547.1434
  21948636.2474  -15241349.84748 -11775273.23646                  21948633.2744
      1016.6464
  21714342.7544  -19168945.87548 -14933439.49246                  21714340.4524
      -480.1374
 06  6 29  0  9 59.9990000  0  8G 2G27G 4G29G26G24G10G 8
  19862940.6154  -27413964.78548 -21350992.00847                  19862935.1894
       124.8734
  23924723.5774   -5123754.84647  -3988138.84345                  23924721.2754
     -2246.4214
  21402762.9064  -20943743.29448 -16312613.16546                  21402760.2324
     -1742.6864
  20954104.9064  -15866754.68048 -12574246.45246                  20954102.4134
       530.3324
  21387938.3524  -14792151.59248 -11773377.35646                  21387935.7004
      1607.7784
  23499181.3484   -7275996.74947  -7034076.97344                  23499180.4884
     -2556.1624
  21942827.9334  -15271870.80348 -11799055.78046                  21942825.0934
      1018.0474
  21717133.2864  -19154282.21948 -14922013.25546                  21717130.6204
      -497.5934
 06  6 29  0 10 29.9990000  0  8G 2G27G 4G29G26G24G10G 8
  19862281.3944  -27417430.64048 -21353692.68247                  19862275.9264
       106.0214
  23937573.8674   -5056224.65547  -3935517.92245                  23937572.7764
     -2255.7864
  21412749.5054  -20891265.34348 -16271721.27446                  21412746.2874
     -1755.9334
  20951113.5734  -15882473.09547 -12586494.56546                  20951110.8424
       517.5294
  21378800.7114  -14840170.74548 -11810794.88246                  21378797.7404
      1593.3204
  23513798.8114   -7199180.01547  -6974219.86944                  23513798.3964
     -2565.0644
  21937012.2834  -15302434.32848 -11822871.52746                  21937009.2664
      1019.3364
  21720022.8734  -19139096.30948 -14910180.07946                  21720020.4374
      -514.9414
 06  6 29  0 10 59.9990000  0  8G 2G27G 4G29G26G24G10G 8
  19861729.8734  -27420329.53748 -21355951.56047                  19861724.6714
        87.0954
  23950477.4164   -4988413.90047  -3882678.42944                  23950476.4314
     -2265.1904
  21422811.3064  -20838390.45248 -16230520.07546                  21422807.7124
     -1769.1944
  20948195.5944  -15897807.92247 -12598443.78046                  20948192.6184
       504.7224
  21369745.6944  -14887755.21448 -11847873.67446                  21369743.0604
      1578.8874
  23528468.0014   -7122096.42246  -6914154.77544                  23528466.9514
     -2574.0094
  21931187.6954  -15333040.10348 -11846720.17846                  21931184.9394
      1020.7764
  21723012.1664  -19123388.57548 -14897940.27346                  21723009.2254
      -532.3834
 06  6 29  0 11 29.9990000  0  8G 2G27G 4G29G26G24G10G 8
  19861286.5164  -27422658.12248 -21357766.03747                  19861281.0204
        68.3894
  23963435.3634   -4920321.72447  -3829619.59644                  23963433.2654
     -2274.1504
  21432949.0454  -20785117.15148 -16189008.44546                  21432945.6094
     -1782.0904
  20945350.4284  -15912758.00548 -12610093.18746                  20945347.5634
       492.2074
  21360773.5004  -14934902.71948 -11884611.96546                  21360770.9344
      1564.6634
  23543187.1594   -7044744.86047  -6853880.88744                  23543186.6454
     -2582.5344
  21925356.4014  -15363684.70747 -11870599.10146                  21925353.7974
      1022.5154
  21726100.5654  -19107156.17048 -14885291.65046                  21726098.9184
      -549.5754
 06  6 29  0 11 59.9990000  0  8G 2G27G 4G29G26G24G10G 8
  19860950.7384  -27424423.44448 -21359141.61547                  19860945.5264
        49.5074
  23976445.2964   -4851957.90447  -3776349.13844                  23976443.3404
     -2283.2234
  21443160.5534  -20731453.95748 -16147192.98846                  21443157.8114
     -1795.1424
  20942577.3244  -15927332.18347 -12621449.67646                  20942574.5184
       479.5414
  21351883.1634  -14981621.09248 -11921015.89246                  21351880.3344
      1550.1814
  23557955.2274   -6967134.39247  -6793405.26644                  23557955.6594
     -2591.2654
  21919516.1404  -15394375.14947 -11894513.73546                  21919513.2064
      1023.7994
  21729288.4364  -19090406.79948 -14872240.19146                  21729285.6404
      -566.8754
 06  6 29  0 12 29.9990000  0  8G 2G27G 4G29G26G24G10G 8
  19860722.6774  -27425621.81348 -21360075.42447                  19860717.1654
        30.4644
  23989504.6574   -4783321.00447  -3722865.85244                  23989503.5204
     -2292.5194
  21453447.3474  -20677398.88848 -16105072.19546                  21453444.1234
     -1808.4474
  20939876.0084  -15941528.97647 -12632512.11746                  20939873.0164
       466.8214
  21343075.3754  -15027907.52048 -11957083.22646                  21343072.5024
      1535.6304
  23572774.2254   -6889263.62747  -6732726.82144                  23572773.9454
     -2600.1424
  21913667.7764  -15425107.84647 -11918461.30646                  21913664.8944
      1024.9664
  21732574.5794  -19073137.71848 -14858783.76146                  21732571.8274
      -584.3904
 06  6 29  0 12 59.9990000  0  8G 2G27G 4G29G26G24G10G 8
  19860603.4824  -27426248.81648 -21360564.00847                  19860597.4974
        11.4654
  24002619.6424   -4714408.99747  -3669168.20344                  24002617.4624
     -2301.6164
  21463808.5004  -20622949.24248 -16062643.91146                  21463805.5224
     -1821.4504
  20937246.0654  -15955345.86347 -12643278.50446                  20937243.2614
       454.4194
  21334350.3534  -15073758.29548 -11992811.09146                  21334346.9304
      1521.2064
  23587642.7894   -6811130.18847  -6671843.66744                  23587643.1704
     -2608.7354
  21907812.5594  -15455878.20047 -11942438.19146                  21907809.5414
      1026.4114
  21735960.2504  -19055345.55648 -14844919.73346                  21735957.5354
      -601.6024
 06  6 29  0 13 29.9990000  0  8G 2G27G 4G29G26G24G10G 8
  19860592.3054  -27426306.47048 -21360608.92547                  19860586.8444
        -7.4374
  24015784.6194   -4645226.44947  -3615259.77045                  24015783.1554
     -2310.4784
  21474244.1664  -20568108.66448 -16019911.01446                  21474241.1814
     -1834.4344
  20934688.3754  -15968787.12647 -12653752.21446                  20934685.2364
       441.9294
  21325707.5294  -15119176.79048 -12028202.10546                  21325704.7394
      1506.7874
  23602560.6364   -6732738.82447  -6610759.59344                  23602559.6894
     -2617.0854
  21901948.9614  -15486688.53447 -11966446.23346                  21901946.5934
      1027.7154
  21739444.8884  -19037033.02948 -14830650.23146                  21739442.7874
      -619.0584
 06  6 29  0 13 59.9990000  0  8G 2G27G 4G29G26G24G10G 8
  19860690.7144  -27425788.45848 -21360205.29347                  19860685.4824
       -26.9044
  24029000.8364   -4575769.12247  -3561137.19844                  24028999.9314
     -2319.7954
  21484754.9824  -20512872.38548 -15976869.78646                  21484752.4074
     -1847.8564
  20932202.7624  -15981848.15948 -12663929.63946                  20932199.8404
       428.9994
  21317147.7764  -15164157.01548 -12063251.62646                  21317145.4484
      1492.0264
  23617527.7964   -6654084.81647  -6549470.80944                  23617526.8964
     -2626.1574
  21896080.0544  -15517531.84747 -11990479.98646                  21896077.0724
      1028.6674
  21743029.6144  -19018194.33348 -14815970.73746                  21743026.9944
      -636.7774
 06  6 29  0 14 29.9990000  0  8G 2G27G 4G29G26G24G10G 8
  19860897.8934  -27424698.26848 -21359355.81147                  19860892.7774
       -45.6844
  24042270.6904   -4506042.93347  -3506805.17744                  24042268.1404
     -2328.5214
  21495341.1704  -20457245.54548 -15933524.22646                  21495338.5764
     -1860.5084
  20929789.3124  -15994534.33947 -12673814.96646                  20929786.5074
       416.8904
  21308670.8914  -15208703.50248 -12097963.16946                  21308668.4324
      1477.8764
  23632543.8544   -6575173.93247  -6487981.87844                  23632543.0244
     -2634.3804
  21890204.2314  -15548411.78648 -12014542.27546                  21890200.9514
      1030.1614
  21746714.0314  -18998833.79548 -14800884.59846                  21746711.4504
      -653.8824
 06  6 29  0 14 59.9990000  0  8G 2G27G 4G29G26G24G10G 8
  19861213.2404  -27423041.90448 -21358065.14547                  19861207.7424
       -64.6924
  24055587.7914   -4436056.63547  -3452270.42844                  24055586.3624
     -2337.2314
  21505999.0544  -20401236.07248 -15889880.51246                  21505996.3344
     -1873.4424
  20927444.8974  -16006854.07548 -12683414.75346                  20927441.7784
       404.5414
  21300275.1524  -15252823.11648 -12132342.06346                  21300272.8694
      1463.4824
  23647607.5104   -6496014.37946  -6426299.14344                  23647607.3214
     -2642.8084
  21884319.8264  -15579334.18648 -12038637.63246                  21884316.7734
      1031.4014
  21750496.6644  -18978958.44848 -14785397.31646                  21750493.6094
      -671.1384
 06  6 29  0 15 29.9990000  0  8G 2G27G 4G29G26G24G10G 8
  19861637.3354  -27420814.34548 -21356329.40747                  19861631.4534
       -83.7064
  24068956.7804   -4365806.85047  -3397530.33744                  24068954.5944
     -2346.0354
  21516730.8284  -20344840.28348 -15845935.76246                  21516727.6364
     -1886.2304
  20925170.4584  -16018803.84448 -12692726.26846                  20925167.6444
       392.2174
  21291961.2254  -15296511.66448 -12166385.09846                  21291958.7534
      1449.1114
  23662719.1684   -6416603.28547  -6364420.48944                  23662718.9714
     -2651.2114
  21878428.6194  -15610293.76648 -12062761.98046                  21878424.9524
      1032.6864
  21754377.1484  -18958563.92248 -14769505.48946                  21754374.2124
      -688.3844
 06  6 29  0 15 59.9990000  0  8G 2G27G 4G29G26G24G10G 8
  19862170.6324  -27418011.14848 -21354145.08547                  19862165.0744
      -103.2234
  24082374.0444   -4295291.61546  -3342583.46744                  24082373.4884
     -2355.2204
  21527536.5564  -20288055.37648 -15801687.81546                  21527533.7344
     -1899.5954
  20922967.6964  -16030381.57447 -12701747.85846                  20922964.4144
       379.5364
  21283730.8234  -15339765.56847 -12200089.42446                  21283727.4184
      1434.3264
  23677879.1174   -6336938.39847  -6302344.03044                  23677878.1314
     -2659.9324
  21872531.0504  -15641285.99848 -12086911.77046                  21872527.5884
      1033.3744
  21758357.7164  -18937646.45848 -14753206.17046                  21758354.5334
      -706.1234
 06  6 29  0 16 29.9990000  0  8G 2G27G 4G29G26G24G10G 8
  19862812.9174  -27414637.38548 -21351516.18547                  19862807.3884
      -121.9684
  24095842.3484   -4224518.54147  -3287435.63044                  24095841.0394
     -2363.5454
  21538415.2474  -20230887.97548 -15757141.81746                  21538413.0004
     -1911.9394
  20920833.8164  -16041593.98348 -12710484.79846                  20920831.4364
       367.6124
  21275580.9154  -15382590.62448 -12233459.59946                  21275578.1384
      1420.3424
  23693085.6264   -6257026.80647  -6240075.26644                  23693085.1204
     -2667.7444
  21866626.3394  -15672315.53848 -12111090.63046                  21866622.9274
      1034.8884
  21762436.4034  -18916211.86648 -14736503.88746                  21762433.7244
      -723.1064
 06  6 29  0 16 59.9990000  0  8G 2G27G 4G29G26G24G10G 8
  19863563.7524  -27410692.08948 -21348441.93747                  19863557.8924
      -141.0064
  24109357.8944   -4153488.54746  -3232087.66044                  24109357.1834
     -2371.9094
  21549366.2944  -20173338.90448 -15712298.43046                  21549363.6604
     -1924.6634
  20918769.4884  -16052442.20847 -12718937.96446                  20918766.3414
       355.6354
  21267513.3304  -15424986.77547 -12266495.56246                  21267510.5614
      1406.0994
  23708339.2334   -6176869.21746  -6177614.94044                  23708338.6444
     -2675.9624
  21860714.6974  -15703381.16247 -12135297.59846                  21860711.3874
      1036.1384
  21766613.5764  -18894260.46048 -14719398.89346                  21766611.3504
      -740.3714
 06  6 29  0 17 29.9990000  0  8G 2G27G 4G29G26G24G10G 8
  19864422.4654  -27406179.01148 -21344925.26347                  19864416.5284
      -159.8544
  24122923.2774   -4082207.98346  -3176544.38744                  24122921.8544
     -2380.3124
  21560389.2044  -20115413.47348 -15667161.75746                  21560386.7114
     -1937.0264
  20916772.9664  -16062931.95447 -12727111.77346                  20916769.6314
       343.8234
  21259526.8534  -15466958.74247 -12299200.99146                  21259523.3264
      1391.9874
  23723638.7204   -6096471.73146  -6114967.64644                  23723637.5164
     -2683.8144
  21854795.1544  -15734485.81748 -12159534.99846                  21854791.8984
      1037.4714
  21770888.5264  -18871796.63048 -14701894.61446                  21770886.2354
      -757.3344
 06  6 29  0 17 59.9990000  0  8G 2G27G 4G29G26G24G10G 8
  19865389.2854  -27401096.51548 -21340964.88947                  19865384.1594
      -178.7014
  24136534.8464   -4010677.40647  -3120806.31244                  24136533.5124
     -2388.1884
  21571484.0174  -20057111.34348 -15621731.54246                  21571480.9614
     -1949.4294
  20914845.4034  -16073063.07447 -12735006.15246                  20914841.9934
       331.8754
  21251620.4644  -15508505.17447 -12331574.81446                  21251617.6744
      1378.1304
  23738983.2714   -6015834.64346  -6052133.59744                  23738982.9234
     -2691.5924
  21848869.1804  -15765627.50848 -12183801.24546                  21848865.6614
      1038.9214
  21775260.9534  -18848818.93848 -14683989.91246                  21775258.3334
      -774.1314
 06  6 29  0 18 29.9990000  0  8G 2G27G 4G29G26G24G10G 8
  19866464.7834  -27395445.77748 -21336561.71947                  19866459.2814
      -198.0664
  24150194.2634   -3938900.07747  -3064875.93144                  24150192.2034
     -2396.9244
  21582649.7974  -19998435.43648 -15576010.07646                  21582647.2224
     -1962.2804
  20912984.7914  -16082839.01447 -12742623.76646                  20912981.8864
       319.7754
  21243795.3074  -15549628.45948 -12363618.92246                  21243792.3064
      1363.5354
  23754372.7594   -5934961.27246  -5989115.43744                  23754372.5604
     -2699.8534
  21842935.1464  -15796807.25448 -12208097.14846                  21842932.7474
      1039.8584
  21779730.8854  -18825329.73348 -14665686.64146                  21779728.9664
      -791.5874
 06  6 29  0 18 59.9990000  0  8G 2G27G 4G29G26G24G10G 8
  19867649.1144  -27389222.25048 -21331712.22447                  19867643.5754
      -216.8994
  24163900.3984   -3866873.19847  -3008751.16144                  24163898.8334
     -2404.9614
  21593886.8704  -19939382.40748 -15529994.76146                  21593884.9004
     -1974.5804
  20911193.0134  -16092256.87047 -12749962.35246                  20911189.6534
       308.0664
  21236050.5704  -15590324.51048 -12395330.12446                  21236048.3794
      1349.4824
  23769808.0034   -5853849.12746  -5925911.27844                  23769807.9164
     -2707.4614
  21836995.9114  -15828019.69148 -12232418.54746                  21836993.4274
      1040.9724
  21784299.2904  -18801325.19948 -14646981.81246                  21784296.3304
      -808.6624
 06  6 29  0 19 29.9990000  0  8G 2G27G 4G29G26G24G10G 8
  19868942.0634  -27382425.71048 -21326416.22247                  19868936.6464
      -236.2504
  24177654.2244   -3794599.03647  -2952433.67844                  24177652.4694
     -2413.4624
  21605196.0264  -19879953.89248 -15483686.86146                  21605193.5214
     -1987.4414
  20909468.7944  -16101318.40647 -12757023.28546                  20909465.5354
       296.0014
  21228387.8744  -15630594.00047 -12426708.94646                  21228384.8534
      1335.1034
  23785287.7804   -5772500.03446  -5862522.45744                  23785288.0744
     -2715.7674
  21831050.5874  -15859264.20847 -12256764.92546                  21831046.8864
      1041.8854
  21788964.3794  -18776805.81548 -14627875.79346                  21788961.6064
      -826.0164
 06  6 29  0 19 59.9990000  0  8G 2G27G 4G29G26G24G10G 8
  19870345.2514  -27375052.88848 -21320671.16247                  19870340.1994
      -255.0004
  24191454.0944   -3722076.86347  -2895922.91144                  24191452.8844
     -2421.1184
  21616576.4294  -19820148.33348 -15437085.14546                  21616574.0074
     -1999.5074
  20907812.3784  -16110022.43447 -12763805.63946                  20907809.0464
       284.5314
  21220805.9374  -15670434.80947 -12457753.71946                  21220803.4734
      1321.2894
  23800814.3124   -5690912.71446  -5798947.99644                  23800813.0994
     -2723.2034
  21825100.3784  -15890537.37547 -12281133.62046                  21825096.1504
      1043.2374
  21793729.0994  -18751769.49048 -14608366.96146                  21793726.1894
      -842.7884
 06  6 29  0 20 29.9990000  0  8G 2G27G 4G29G26G24G10G 8
  19871856.8614  -27367110.25048 -21314482.10947                  19871851.4894
      -274.3464
  24205300.1604   -3649314.92047  -2839225.36144                  24205298.5334
     -2429.4734
  21628027.6604  -19759973.36848 -15390195.60347                  21628025.5484
     -2012.1094
  20906222.2904  -16118376.97847 -12770315.66346                  20906219.8224
       272.5984
  21213304.7374  -15709853.81347 -12488469.83146                  21213302.6534
      1306.8364
  23816384.3414   -5609095.42546  -5735194.33344                  23816383.4014
     -2731.1574
  21819143.2084  -15921844.63348 -12305528.87946                  21819138.2044
      1043.9844
  21798590.2984  -18726222.98448 -14588460.60146                  21798587.5024
      -860.1714
 06  6 29  0 20 59.9990000  0  8G 2G27G 4G29G26G24G10G 8
  19873477.7744  -27358593.43348 -21307845.63247                  19873472.5864
      -293.1694
  24219192.6644   -3576310.88047  -2782339.08743                  24219190.9134
     -2437.1684
  21639549.7124  -19699426.10348 -15343015.94246                  21639547.4034
     -2024.1944
  20904699.5574  -16126379.31147 -12776551.23246                  20904697.6804
       261.1334
  21205884.8834  -15748847.37948 -12518854.42946                  21205882.7844
      1292.9204
  23831996.8524   -5527045.58646  -5671259.50744                  23831997.3194
     -2738.5994
  21813178.7214  -15953180.99248 -12329946.81646                  21813175.8334
      1045.2644
  21803549.2614  -18700162.57748 -14568153.79746                  21803546.6974
      -876.9824
 06  6 29  0 21 29.9990000  0  8G 2G27G 4G29G26G24G10G 8
  19875206.8084  -27349506.22448 -21300764.70147                  19875201.8204
      -312.4324
  24233130.1554   -3503070.44147  -2725268.65044                  24233127.9074
     -2445.2154
  21651140.9384  -19638511.78748 -15295550.26146                  21651138.1854
     -2036.5924
  20903243.0804  -16134035.14847 -12782516.81546                  20903240.0874
       249.4684
  21198544.5884  -15787419.98348 -12548910.98146                  21198542.3274
      1278.7994
  23847655.2474   -5444768.77446  -5607147.76644                  23847653.5064
     -2746.2604
  21807209.1794  -15984549.53148 -12354389.82846                  21807206.2634
      1046.0744
  21808605.2054  -18673592.68648 -14547449.98246                  21808603.0254
      -894.2144
 06  6 29  0 21 59.9990000  0  8G 2G27G 4G29G26G24G10G 8
  19877044.6684  -27339847.16048 -21293238.17747                  19877039.6144
      -331.5924
  24247111.9034   -3429594.44347  -2668014.67944                  24247109.8064
     -2453.3504
  21662802.8224  -19577230.58348 -15247798.69146                  21662800.0914
     -2048.9704
  20901851.3144  -16141344.86547 -12788212.69346                  20901849.4254
       237.7254
  21191284.6744  -15825570.94047 -12578639.00646                  21191282.8684
      1264.5614
  23863353.7644   -5362265.88846  -5542859.87744                  23863352.9884
     -2753.9014
  21801234.6634  -16015948.19347 -12378856.31546                  21801231.5584
      1046.9874
  21813758.1794  -18646513.29747 -14526349.15346                  21813756.2304
      -911.3624
 06  6 29  0 22 29.9990000  0  8G 2G27G 4G29G26G24G10G 8
  19878992.2974  -27329613.07248 -21285263.58747                  19878987.5514
      -350.7574
  24261139.4884   -3355881.61847  -2610576.17544                  24261137.0494
     -2461.1474
  21674534.1374  -19515580.52648 -15199759.71846                  21674531.4224
     -2061.0894
  20900526.6694  -16148307.05347 -12793637.77446                  20900524.1154
       226.2994
  21184105.4934  -15863297.86247 -12608036.61246                  21184103.2284
      1250.4544
  23879096.8294   -5279535.29746  -5478394.57844                  23879096.2574
     -2761.5584
  21795255.3334  -16047372.73448 -12403342.97846                  21795251.3884
      1047.8714
  21819009.0474  -18618921.71048 -14504849.21146                  21819006.0384
      -928.2864
 06  6 29  0 22 59.9990000  0  8G 2G27G 4G29G26G24G10G 8
  19881048.8714  -27318805.78648 -21276842.33947                  19881043.6624
      -369.9224
  24275210.0334   -3281935.64947  -2552955.91643                  24275208.4934
     -2468.7654
  21686335.4634  -19453565.20548 -15151436.12946                  21686333.0274
     -2073.3454
  20899267.3434  -16154925.24547 -12798794.80446                  20899264.5654
       214.7754
  21177006.3774  -15900603.42647 -12637105.86646                  21177003.6744
      1236.3824
  23894882.5224   -5196580.71946  -5413754.74144                  23894881.9374
     -2768.9164
  21789269.6394  -16078824.37248 -12427850.74046                  21789266.3294
      1048.6674
  21824356.9094  -18590819.99948 -14482951.78646                  21824353.7484
      -945.2784
 06  6 29  0 23 29.9990000  0  8G 2G27G 4G29G26G24G10G 8
  19883214.6574  -27307425.10048 -21267974.27847                  19883209.4474
      -388.9654
  24289326.2554   -3207758.64647  -2495155.66843                  24289323.8034
     -2476.4454
  21698205.3244  -19391185.64948 -15102828.69946                  21698203.2204
     -2085.4594
  20898073.2204  -16161200.88348 -12803684.91146                  20898070.9004
       203.3944
  21169987.7174  -15937487.98748 -12665847.07546                  21169985.0314
      1222.4224
  23910709.3204   -5113403.78746  -5348941.58444                  23910710.6744
     -2776.4754
  21783279.6724  -16110302.22748 -12452378.92246                  21783276.3014
      1049.5754
  21829800.6614  -18562208.96648 -14460657.47646                  21829798.2074
      -962.2074
 06  6 29  0 23 59.9990000  0  8G 2G27G 4G29G26G24G10G 8
  19885489.2664  -27295472.28148 -21258660.43847                  19885483.6264
      -407.9304
  24303484.1394   -3133353.47446  -2437177.68443                  24303483.3304
     -2483.9214
  21710144.7464  -19328444.57448 -15053939.57246                  21710142.7934
     -2097.3344
  20896943.3814  -16167137.01047 -12808310.45846                  20896941.1754
       192.2714
  21163048.7594  -15973953.49348 -12694261.76946                  21163046.1554
      1208.6044
  23926580.1424   -5030007.63646  -5283957.64443                  23926580.7184
     -2783.4624
  21777284.8014  -16141806.52447 -12476927.72846                  21777281.4784
      1050.6644
  21835341.8984  -18533090.84347 -14437968.03846                  21835339.4454
      -978.9844
 06  6 29  0 24 29.9990000  0  8G 2G27G 4G29G26G24G10G 8
  19887872.9454  -27282946.53148 -21248900.12347                  19887867.7384
      -427.0024
  24317686.0254   -3058721.64046  -2379023.00843                  24317684.6534
     -2491.3824
  21722152.8144  -19265342.55948 -15004769.19446                  21722150.8264
     -2109.3024
  20895878.7024  -16172734.46848 -12812672.11046                  20895876.0554
       181.1044
  21156189.4864  -16009999.78548 -12722349.77546                  21156186.3154
      1194.6784
  23942492.0604   -4946393.25246  -5218803.71844                  23942491.8214
     -2790.6454
  21771285.2434  -16173335.77848 -12501495.97346                  21771281.7384
      1051.4364
  21840979.4714  -18503465.63148 -14414883.46346                  21840976.4404
      -995.8944
 06  6 29  0 24 59.9990000  0  8G 2G27G 4G29G26G24G10G 8
  19890365.2834  -27269848.88648 -21238694.13747                  19890359.0324
      -446.4064
  24331931.2854   -2983865.98246  -2320693.98844                  24331930.1894
     -2499.1264
  21734229.0174  -19201882.13548 -14955319.53546                  21734226.8394
     -2121.6164
  20894877.2984  -16177996.04748 -12816772.03046                  20894874.5614
       169.5514
  21149409.4034  -16045628.54948 -12750112.43246                  21149405.9234
      1180.3914
  23958444.1634   -4862563.26846  -5153481.72344                  23958444.4914
     -2798.1794
  21765280.7984  -16204889.92848 -12526083.60846                  21765277.2174
      1051.9584
  21846713.2764  -18473334.78248 -14391404.88746                  21846710.4534
     -1013.0964
 06  6 29  0 25 29.9990000  0  8G 2G27G 4G29G26G24G10G 8
  19892966.2994  -27256179.97148 -21228043.03647                  19892960.0874
      -465.1324
  24346217.6994   -2908788.41646  -2262192.01444                  24346216.5544
     -2506.2354
  21746372.9324  -19138064.73548 -14905591.71546                  21746370.4024
     -2133.1154
  20893939.6904  -16182923.67548 -12820611.73346                  20893936.6854
       158.6964
  21142708.6524  -16080840.77148 -12777550.53646                  21142705.6984
      1166.8904
  23974438.0054   -4778520.17446  -5087993.64744                  23974437.1514
     -2804.9514
  21759270.7334  -16236468.24948 -12550690.07846                  21759267.9384
      1053.0764
  21852543.0724  -18442699.27748 -14367533.07346                  21852540.1194
     -1029.5124
 06  6 29  0 25 59.9990000  0  8G 2G27G 4G29G26G24G10G 8
  19895676.0524  -27241940.80248 -21216947.57947                  19895670.3854
      -484.2534
  24360546.4674   -2833492.60846  -2203519.98044                  24360544.9444
     -2513.6134
  21758584.2814  -19073893.60948 -14855588.26146                  21758581.4654
     -2145.0004
  20893065.2634  -16187520.73048 -12824193.85346                  20893061.5074
       147.6614
  21136087.3864  -16115638.76448 -12804665.85346                  21136083.6234
      1152.9354
  23990470.9464   -4694266.91246  -5022341.87744                  23990470.1804
     -2811.9924
  21753257.8064  -16268071.31148 -12575315.83246                  21753253.8064
      1053.8094
  21858468.2514  -18411561.88748 -14343270.18146                  21858466.0844
     -1046.3284
 06  6 29  0 26 29.9990000  0  8G 2G27G 4G29G26G24G10G 8
  19898493.7724  -27227132.87448 -21205408.93447                  19898488.7414
      -502.7344
  24374915.5824   -2757981.61246  -2144680.30444                  24374914.4544
     -2520.1904
  21770862.1174  -19009371.09148 -14805310.99446                  21770860.1314
     -2156.2654
  20892252.7654  -16191789.82248 -12827520.40146                  20892249.2534
       137.2024
  21129543.3944  -16150024.46148 -12831459.89146                  21129540.6334
      1139.7174
  24006543.0234   -4609806.58346  -4956528.68044                  24006542.7054
     -2818.3894
  21747238.5484  -16299699.22548 -12599960.94946                  21747235.2984
      1055.0054
  21864488.5354  -18379924.20848 -14318617.43746                  21864486.4504
     -1062.5734
 06  6 29  0 26 59.9990000  0  8G 2G27G 4G29G26G24G10G 8
  19901420.5934  -27211753.19648 -21193424.78047                  19901415.6634
      -522.5154
  24389327.6274   -2682254.37746  -2085672.11244                  24389324.9654
     -2528.2374
  21783207.5264  -18944495.80548 -14754758.85946                  21783205.4824
     -2168.6864
  20891502.7374  -16195729.76148 -12830590.49346                  20891499.4844
       125.6154
  21123079.0844  -16183995.33648 -12857930.70746                  21123076.4914
      1125.1074
  24022654.1454   -4525137.80446  -4890553.14444                  24022654.5014
     -2826.0844
  21741215.9154  -16331347.92748 -12624622.26046                  21741212.2834
      1055.0154
  21870604.8374  -18347783.86048 -14293573.00946                  21870602.2864
     -1080.0494
 06  6 29  0 27 29.9990000  0  8G 2G27G 4G29G26G24G10G 8
  19904456.5824  -27195799.33748 -21180993.23347                  19904451.9194
      -541.2304
  24403778.7694   -2606310.03046  -2026494.79344                  24403777.0494
     -2534.9614
  21795620.8444  -18879266.33848 -14703930.72946                  21795618.3884
     -2180.0834
  20890815.7914  -16199339.66148 -12833403.39946                  20890812.4194
       114.9514
  21116693.7414  -16217549.71948 -12884076.96146                  21116691.6254
      1111.6264
  24038806.5284   -4440259.62446  -4824414.37644                  24038806.7014
     -2832.6224
  21735190.1204  -16363013.92447 -12649297.05046                  21735187.1484
      1055.8504
  21876816.5354  -18315139.07348 -14268135.51446                  21876814.2754
     -1096.3964
 06  6 29  0 27 59.9990000  0  8G 2G27G 4G29G26G24G10G 8
  19907600.3994  -27179277.29548 -21168118.93647                  19907595.3884
      -560.0494
  24418269.5594   -2530156.60046  -1967154.49944                  24418268.8614
     -2541.8024
  21808099.4564  -18813690.16748 -14652832.43346                  21808096.8434
     -2191.4844
  20890190.2124  -16202627.03748 -12835964.97746                  20890186.7424
       104.3654
  21110386.3894  -16250694.37548 -12909903.95446                  21110384.3794
      1098.2134
  24054996.6724   -4355179.89747  -4758118.50944                  24054996.4914
     -2839.2684
  21729159.9524  -16394702.12647 -12673989.16646                  21729157.2514
      1056.8024
  21883123.4424  -18281996.86748 -14242310.42946                  21883120.8774
     -1112.8664
 06  6 29  0 28 29.9990000  0  8G 2G27G 4G29G26G24G10G 8
  19910853.0614  -27162186.27748 -21154801.27247                  19910846.7984
      -579.6194
  24432800.9844   -2453794.86146  -1907651.90344                  24432799.9694
     -2549.3654
  21820643.9184  -18747767.62548 -14601464.25846                  21820642.0144
     -2203.5944
  20889626.1194  -16205592.73747 -12838275.92546                  20889622.5614
        93.0374
  21104157.4424  -16283428.76847 -12935411.28046                  21104154.7164
      1083.8624
  24071224.3374   -4269899.29846  -4691666.20144                  24071225.1104
     -2846.4754
  21723126.4244  -16426410.36047 -12698696.88446                  21723123.0174
      1056.8264
  21889525.3544  -18248356.92348 -14216097.49346                  21889522.4284
     -1130.0834
 06  6 29  0 28 59.9990000  0  8G 2G27G 4G29G26G24G10G 8
  19914213.0334  -27144528.49348 -21141041.96047                  19914207.6994
      -597.9444
  24447371.1064   -2377228.68446  -1847989.99744                  24447368.9534
     -2555.5374
  21833254.0024  -18681502.13048 -14549828.81846                  21833251.9764
     -2214.3904
  20889122.2184  -16208239.94647 -12840338.67646                  20889118.5884
        83.0424
  21098005.5714  -16315755.68748 -12960601.07046                  21098003.7114
      1070.8554
  24087490.6164   -4184421.66346  -4625060.32844                  24087491.0664
     -2852.5244
  21717088.8684  -16458139.44547 -12723420.82446                  21717085.3064
      1058.0914
  21896020.9534  -18214221.90948 -14189498.76946                  21896018.1374
     -1146.0504
 06  6 29  0 29 29.9990000  0  8G 2G27G 4G29G26G24G10G 8
  19917681.6094  -27126302.09048 -21126839.58547                  19917676.2264
      -617.1584
  24461980.2294   -2300457.99846  -1788168.74844                  24461978.6164
     -2562.5784
  21845929.3244  -18614893.16848 -14497925.75346                  21845926.4944
     -2226.1434
  20888678.8284  -16210568.86047 -12842153.41146                  20888675.7084
        72.2224
  21091932.0994  -16347673.99548 -12985472.47946                  21091929.6414
      1057.0314
  24103794.2334   -4098746.76946  -4558300.76143                  24103793.5864
     -2859.2724
  21711046.9304  -16489886.36748 -12748158.67946                  21711043.3944
      1058.3254
  21902610.9024  -18179590.96948 -14162513.61246                  21902608.0914
     -1162.7834
 06  6 29  0 29 59.9990000  0  8G 2G27G 4G29G26G24G10G 8
  19921258.4374  -27107505.00248 -21112192.51047                  19921253.5554
      -635.8594
  24476627.9354   -2223482.08846  -1728187.57444                  24476626.7554
     -2569.0974
  21858669.7154  -18547940.02048 -14445754.48746                  21858667.6634
     -2237.3004
  20888296.6394  -16212578.83948 -12843719.63046                  20888292.9834
        61.9584
  21085936.2864  -16379182.11248 -13010024.26046                  21085934.1584
      1043.6284
  24120136.1094   -4012874.11647  -4491387.08344                  24120135.6244
     -2865.4204
  21705003.4004  -16521647.61647 -12772907.70846                  21705000.1904
      1059.0924
  21909295.9864  -18144462.44248 -14135140.75146                  21909292.8954
     -1179.0284
 06  6 29  0 30 29.9990000  0  8G 2G27G 4G29G26G24G10G 8
  19924943.1784  -27088142.18948 -21097104.63547                  19924937.7224
      -654.9414
  24491314.0274   -2146308.11346  -1668052.07144                  24491312.2454
     -2575.9774
  21871474.9334  -18480649.19948 -14393320.11546                  21871472.6164
     -2248.6964
  20887973.4764  -16214276.65248 -12845042.60746                  20887970.5394
        51.2944
  21080017.2414  -16410286.01647 -13034261.06846                  21080014.7074
      1029.8634
  24136512.6634   -3926810.57847  -4424324.69544                  24136512.9794
     -2872.0994
  21698955.7114  -16553427.30647 -12797671.10846                  21698952.6354
      1059.4924
  21916074.1864  -18108842.11748 -14107384.65646                  21916070.9274
     -1195.6984
 06  6 29  0 30 59.9990000  0  8G 2G27G 4G29G26G24G10G 8
  19928734.7614  -27068217.37148 -21081578.80447                  19928729.1584
      -673.4084
  24506036.1214   -2068941.21546  -1607766.23944                  24506034.9144
     -2581.9824
  21884343.7474  -18413025.26348 -14340626.16346                  21884341.5214
     -2259.5664
  20887708.7074  -16215667.17747 -12846126.12846                  20887705.4434
        41.3534
  21074174.9284  -16440989.56647 -13058185.91646                  21074171.8074
      1016.8704
  24152925.3214   -3840561.39146  -4357117.62843                  24152925.9414
     -2877.7834
  21692904.5104  -16585227.44247 -12822450.41046                  21692901.3714
      1060.5184
  21922945.5244  -18072734.11148 -14079248.52246                  21922942.6944
     -1211.6064
 06  6 29  0 31 29.9990000  0  8G 2G27G 4G29G26G24G10G 8
  19932633.5164  -27047727.96048 -21065613.02847                  19932627.9104
      -692.5244
  24520795.9014   -1991380.52946  -1547329.41244                  24520794.9714
     -2588.7844
  21897275.3564  -18345066.68647 -14287671.45546                  21897273.1124
     -2270.9724
  20887503.1904  -16216749.20647 -12846969.26846                  20887499.5984
        30.7624
  21068408.3794  -16471290.87448 -13081797.31646                  21068405.1614
      1003.2284
  24169373.9114   -3754125.23246  -4289764.85144                  24169374.1854
     -2884.5464
  21686850.2354  -16617044.06348 -12847242.58146                  21686846.3404
      1060.6494
  21929909.0554  -18036136.91247 -14050731.23246                  21929906.3854
     -1228.2424
 06  6 29  0 31 59.9990000  0  8G 2G27G 4G29G26G24G10G 8
  19936640.7834  -27026668.85348 -21049203.34847                  19936635.7794
      -711.2704
  24535592.4544   -1913622.26846  -1486738.63844                  24535591.5334
     -2595.0784
  21910271.6784  -18276769.78147 -14234453.11946                  21910269.7524
     -2282.0364
  20887356.6404  -16217518.99947 -12847569.11146                  20887353.0004
        20.6104
  21062720.0444  -16501184.91548 -13105091.36546                  21062716.9694
       989.8104
  24185858.2254   -3667498.31646  -4222263.45044                  24185859.2164
     -2890.6154
  21680793.2864  -16648870.30348 -12872042.24546                  21680790.1534
      1061.1874
  21936967.4564  -17999045.85747 -14021829.11546                  21936964.6984
     -1244.3904
 06  6 29  0 32 29.9990000  0  8G 2G27G 4G29G26G24G10G 8
  19940755.3374  -27005048.15148 -21032356.04947                  19940750.0214
      -730.1514
  24550425.9444   -1835676.30246  -1426001.59544                  24550424.3694
     -2601.4014
  21923331.0084  -18208143.95748 -14180978.48746                  21923328.7814
     -2293.1014
  20887267.4484  -16217986.28648 -12847933.22346                  20887264.0094
        10.4204
  21057107.2004  -16530681.13248 -13128075.43846                  21057103.2174
       976.4554
  24202377.4034   -3580690.86246  -4154621.30544                  24202377.4384
     -2896.6504
  21674733.9534  -16680713.10048 -12896854.81046                  21674731.1194
      1061.5384
  21944117.9744  -17961469.91847 -13992549.16346                  21944115.3224
     -1260.7134
 06  6 29  0 32 59.9990000  0  8G 2G27G 4G29G26G24G10G 8
  19944976.8824  -26982862.93348 -21015068.88447                  19944971.8124
      -749.1164
  24565294.7414   -1757541.15047  -1365117.12044                  24565292.6904
     -2607.8084
  21936453.2434  -18139187.22448 -14127246.00046                  21936451.1294
     -2304.2384
  20887236.1714  -16218149.34747 -12848060.27446                  20887232.7154
          .1954
  21051570.1064  -16559776.42948 -13150747.09946                  21051567.2774
       962.9694
  24218931.8784   -3493700.59847  -4086836.81544                  24218931.5384
     -2902.8034
  21668672.1034  -16712567.59247 -12921676.51146                  21668669.0064
      1061.8264
  21951361.0094  -17923406.34247 -13962889.23546                  21951358.3184
     -1277.0954
 06  6 29  0 33 29.9990000  0  8G 2G27G 4G29G26G24G10G 8
  19949306.5304  -26960110.26448 -20997339.54047                  19949301.1124
      -767.7204
  24580198.7034   -1679215.07447  -1304083.84744                  24580197.2434
     -2613.9504
  21949638.9214  -18069897.71048 -14073254.21346                  21949636.6054
     -2314.9764
  20887263.5464  -16218006.59947 -12847949.05246                  20887260.3354
        -9.6834
  21046110.1034  -16588468.66648 -13173104.68646                  21046107.1174
       949.8244
  24235520.2094   -3406526.01446  -4018908.67544                  24235520.6204
     -2908.7454
  21662609.0154  -16744429.53147 -12946503.98546                  21662606.1694
      1062.2804
  21958697.5804  -17884852.59847 -13932847.35646                  21958695.3554
     -1293.1154
 06  6 29  0 33 59.9990000  0  8G 2G27G 4G29G26G24G10G 8
  19953743.6964  -26936792.73748 -20979170.05847                  19953738.7294
      -786.5234
  24595139.9804   -1600702.25047  -1242905.05944                  24595138.2984
     -2620.0294
  21962886.7384  -18000279.13348 -14019006.01146                  21962884.4294
     -2325.9334
  20887348.3124  -16217562.07447 -12847602.65946                  20887344.9994
       -19.7364
  21040725.8564  -16616760.67448 -13195150.40946                  21040723.2224
       936.4504
  24252143.7304   -3319171.25146  -3950840.06044                  24252143.8204
     -2914.6784
  21656544.3074  -16776299.86848 -12971338.00346                  21656540.7344
      1062.5244
  21966126.5044  -17845812.39347 -13902426.43046                  21966124.2384
     -1309.3994
 06  6 29  0 34 29.9990000  0  8G 2G27G 4G29G26G24G10G 8
  19958288.8164  -26912910.25348 -20960560.34647                  19958283.2464
      -805.5474
  24610115.9164   -1522004.73347  -1181582.34344                  24610113.4354
     -2626.3924
  21976196.8904  -17930332.96948 -13964502.53346                  21976194.3894
     -2337.0024
  20887490.0354  -16216817.04347 -12847022.12146                  20887486.3154
       -29.8734
  21035418.6214  -16644653.28348 -13216884.91546                  21035415.7434
       923.0714
  24268800.8914   -3231637.90146  -3882632.37344                  24268800.0634
     -2920.8014
  21650478.7104  -16808176.95848 -12996177.29146                  21650475.8694
      1062.6324
  21973648.1454  -17806286.54848 -13871627.06646                  21973645.9634
     -1325.6844
 06  6 29  0 34 59.9990000  0  8G 2G27G 4G29G26G24G10G 8
  19962940.8554  -26888461.47848 -20941509.34847                  19962935.6184
      -824.2874
  24625126.6204   -1443122.41946  -1120115.64844                  24625124.8804
     -2632.2754
  21989569.7954  -17860058.66248 -13909743.35946                  21989568.1574
     -2347.7884
  20887688.7764  -16215771.82848 -12846207.66446                  20887685.4364
       -39.7074
  21030186.9324  -16672145.67348 -13238307.54946                  21030184.3114
       909.8884
  24285492.4054   -3143926.27647  -3814285.73544                  24285491.2524
     -2926.5924
  21644411.7054  -16840057.76948 -13021019.46946                  21644408.8864
      1062.8664
  21981262.2014  -17766274.28048 -13840448.69146                  21981260.1504
     -1341.6414
 06  6 29  0 35 29.9990000  0  9G 2G27G 4G29G26G24G10G 9G 8
  19967699.5124  -26863454.74948 -20922023.60447                  19967694.6034
      -843.1354
  24640170.0414   -1364065.05947  -1058512.56343                  24640168.5314
     -2638.4284
  22003003.3164  -17789465.85848 -13854736.02546                  22003000.6384
     -2358.7264
  20887943.1104  -16214435.59347 -12845166.43946                  20887939.2034
       -49.7464
  21025030.0364  -16699246.28247 -13259424.92046                  21025027.1794
       896.5824
  24302214.5194   -3056045.92546  -3745807.62044                  24302215.2254
     -2932.3734
  21638343.1494  -16871948.80448 -13045869.63346                  21638340.0954
      1062.9104
  24714271.5974
      4049.1464
  21988966.8604  -17725784.26648 -13808898.04946                  21988964.6114
     -1357.9304
 06  6 29  0 35 59.9990000  0  9G 2G27G 4G29G26G24G10G 9G 8
  19972564.9374  -26837887.42248 -20902101.00747                  19972560.0614
      -861.5094
  24655247.5144   -1284830.71447   -996771.52044                  24655245.7054
     -2643.9844
  22016497.4304  -17718552.83248 -13799479.17146                  22016495.6324
     -2368.9704
  20888252.9434  -16212807.03048 -12843897.42446                  20888249.3444
       -59.0774
  21019947.7854  -16725953.02048 -13280235.34946                  21019945.5774
       883.8134
  24318968.8904   -2967995.01246  -3677196.63544                  24318971.0374
     -2937.7544
  21632273.5174  -16903845.52747 -13070724.21146                  21632270.3764
      1063.3354
  24691151.9894    -235913.39944
      4050.7524
  21996763.6704  -17684814.51848 -13776973.58246                  21996761.0024
     -1373.5844
 06  6 29  0 36 29.9990000  0  9G 2G27G 4G29G26G24G10G 9G 8
  19977536.2924  -26811763.59848 -20881744.78447                  19977530.9414
      -879.9514
  24670358.0074   -1205425.23346   -934897.23143                  24670357.5294
     -2649.6444
  22030051.8754  -17647324.32648 -13743976.46646                  22030049.2884
     -2379.4734
  20888617.3564  -16210891.57548 -12842404.85546                  20888614.4054
       -68.5404
  21014939.6534  -16752270.11148 -13300742.17846                  21014936.6304
       870.7764
  24335757.8244   -2879779.01646  -3608457.04543                  24335758.0944
     -2943.2284
  21626202.2924  -16935750.16247 -13095584.95946                  21626199.2984
      1063.6724
  24668023.6624    -357452.51144
      4051.9344
  22004650.3604  -17643369.56848 -13744678.82546                  22004647.6944
     -1389.3704
 06  6 29  0 36 59.9990000  0  9G 2G27G 4G29G26G24G10G 9G 8
  19982613.2294  -26785086.26648 -20860957.26547                  19982607.6764
      -898.3404
  24685499.8784   -1125852.84046   -872892.78043                  24685498.9924
     -2655.0934
  22043665.3544  -17575784.68648 -13688231.32946                  22043662.6364
     -2389.7364
  20889035.6924  -16208693.02848 -12840691.70146                  20889032.3094
       -77.8664
  21010005.4714  -16778201.09148 -13320948.12946                  21010001.8444
       858.0864
  24352574.3504   -2791402.27046  -3539592.15043                  24352575.4844
     -2948.3354
  21620128.8904  -16967663.82947 -13120452.74546                  21620125.6914
      1064.0724
  24644887.2824    -479031.23044
      4053.2714
  22012626.8504  -17601453.00148 -13712016.58246                  22012623.9564
     -1404.9464
 06  6 29  0 37 29.9990000  0  9G 2G27G 4G29G26G24G10G 9G 8
  19987795.3394  -26757852.29448 -20839735.99647                  19987790.0814
      -917.2804
  24700674.2374   -1046112.14146   -810757.14843                  24700672.3984
     -2661.0744
  22057338.8624  -17503931.96247 -13632242.22746                  22057335.8734
     -2400.4354
  20889508.2204  -16206210.03448 -12838756.90246                  20889505.4144
       -87.6514
  21005145.3244  -16803743.47448 -13340851.29446                  21005141.6904
       844.7464
  24369423.1034   -2702863.03846  -3470600.61844                  24369424.0814
     -2954.2534
  21614055.3044  -16999581.88148 -13145323.93346                  21614051.9594
      1063.7944
  24621745.3744
      4054.1214
  22020693.3194  -17559062.31847 -13678984.88746                  22020690.7754
     -1421.1234
 06  6 29  0 37 59.9990000  0  9G 2G27G 4G29G26G24G10G 9G 8
  19993085.0004  -26730054.74648 -20818075.58747                  19993079.8864
      -935.9964
  24715881.9954    -966197.26346   -748485.88143                  24715879.9144
     -2666.7194
  22071072.2684  -17431760.07248 -13576004.42346                  22071069.7974
     -2411.0794
  20890036.0874  -16203436.67748 -12836595.84746                  20890032.9554
       -97.3004
  21000359.4404  -16828890.73748 -13360446.54846                  21000356.5024
       831.6214
  24386303.2804   -2614155.68846  -3401478.09943                  24386304.6914
     -2959.7564
  21607982.2654  -17031495.43147 -13170191.61746                  21607979.3144
      1063.6474
  24598598.4854    -722278.35145
      4054.6974
  22028851.6054  -17516191.05047 -13645578.71046                  22028848.7694
     -1437.0464
 06  6 29  0 38 29.9990000  0  9G 2G27G 4G29G26G24G10G 9G 8
  19998480.1954  -26701702.03948 -20795982.58047                  19998475.3324
      -954.4784
  24731120.7144    -886118.03046   -686086.48543                  24731118.8904
     -2672.1344
  22084865.0694  -17359278.73448 -13519525.48446                  22084863.2834
     -2421.2844
  20890617.2274  -16200382.73648 -12834216.16946                  20890613.7534
      -106.6024
  20995647.7664  -16853651.83848 -13379740.91846                  20995644.8704
       818.8774
  24403214.1894   -2525289.99146  -3332232.16243                  24403215.0954
     -2964.9174
  21601908.8564  -17063411.07347 -13195060.95946                  21601905.4674
      1063.7694
  24575446.9194    -843941.33945   -636975.13342                  24575445.6144
      4055.8404
  22037099.4624  -17472848.89847 -13611805.61446                  22037096.4204
     -1452.6664
 06  6 29  0 38 59.9990000  0  8G 2G27G 4G29G26G10G 9G 8
  20003982.0674  -26672791.41048 -20773454.83747                  20003976.6054
      -973.1984
  24746390.1934    -805872.83446   -623557.82043                  24746389.2354
     -2677.9004
  22098717.1094  -17286485.81347 -13462803.76746                  22098715.0614
     -2431.8074
  20891252.1764  -16197046.20848 -12831616.27946                  20891248.8024
      -116.1084
  20991009.8654  -16878023.87048 -13398732.11246                  20991006.6394
       805.7424
  21595836.1294  -17095323.46448 -13219927.74946                  21595833.2984
      1063.5254
  24552290.6264    -965625.94945   -731794.24642                  24552288.9964
      4056.2654
  22045437.1684  -17429032.64647 -13577663.09946                  22045434.3424
     -1468.6474
 06  6 29  0 39 29.9990000  0  8G 2G27G 4G29G26G10G 9G 8
  20009589.9834  -26643319.26348 -20750489.54547                  20009584.5564
      -991.3624
  24761692.1954    -725459.46846   -560898.12343                  24761692.2144
     -2682.7204
  22112629.2344  -17213378.70948 -13405837.22246                  22112626.6874
     -2441.7974
  20891941.3384  -16193424.83448 -12828794.43346                  20891938.3884
      -125.0294
  20986446.2964  -16902003.86448 -13417417.81146                  20986443.4544
       793.1884
  21589764.9164  -17127227.36847 -13244787.91746                  21589761.8844
      1063.6774
  24529131.5444   -1087325.35345   -826624.81242                  24529130.3724
      4057.2704
  22053866.1654  -17384739.56548 -13543149.01946                  22053863.8574
     -1483.9404
 06  6 29  0 39 59.9990000  0  8G 2G27G 4G29G26G10G 9G 8
  20015303.4964  -26613294.86048 -20727093.93047                  20015298.6864
     -1009.8444
  24777025.4684    -644887.80546   -498115.04543                  24777023.8584
     -2688.2474
  22126598.8774  -17139967.63748 -13348633.81546                  22126596.8704
     -2451.9144
  20892682.7914  -16189528.91048 -12825758.65446                  20892679.5104
      -134.2534
  20981955.9424  -16925601.63348 -13435805.69246                  20981953.0104
       780.4104
  21583694.6374  -17159129.62948 -13269646.81646                  21583690.9284
      1063.4964
  24505968.1214                                                   24505967.3124
      4057.5784
  22062383.6034  -17339979.60847 -13508271.16046                  22062380.9284
     -1499.6244
 06  6 29  0 40 29.9990000  0  8G 2G27G 4G29G26G10G 9G 8
  20021122.3284  -26582717.65648 -20703267.56247                  20021117.0084
     -1028.3304
  24792387.6734    -564158.85546   -435209.47243                  24792386.4564
     -2693.3114
  22140625.8904  -17066253.23648 -13291194.07346                  22140623.8884
     -2462.1484
  20893476.1754  -16185359.14548 -12822509.48446                  20893472.5474
      -143.4724
  20977537.9914  -16948816.81948 -13453895.44846                  20977535.1274
       767.5344
  21577623.8534  -17191027.92348 -13294502.59446                  21577620.6984
      1063.2674
  24482802.6234   -1330781.63945  -1016330.87142                  24482801.5474
      4058.1644
  22070990.0134  -17294752.98047 -13473029.64046                  22070987.5224
     -1515.2494
 06  6 29  0 40 59.9990000  0  8G 2G27G 4G29G26G10G 9G 8
  20027044.1114  -26551596.61448 -20679017.41547                  20027038.8054
     -1046.7434
  24807777.5574    -483282.77646   -372189.15543                  24807776.7744
     -2698.6234
  22154709.1294  -16992245.09048 -13233525.43646                  22154706.9254
     -2472.1394
  20894320.1134  -16180925.48748 -12819054.69346                  20894316.8894
      -152.5294
  20973191.5174  -16971658.67648 -13471694.30346                  20973188.4404
       754.8934
  21571553.5524  -17222929.31848 -13319360.82946                  21571550.0564
      1063.1104
  24459632.9674   -1452539.81745  -1111207.28142                  24459631.9604
      4058.2814
  22079683.4614  -17249068.98748 -13437431.74246                  22079680.6784
     -1530.7034
 06  6 29  0 41 29.9990000  0  8G 2G27G 4G29G26G10G 9G 8
  20033071.2184  -26519926.58448 -20654339.48047                  20033066.1194
     -1064.7804
  24823197.0144    -402255.42146   -309051.00443                  24823196.2434
     -2703.3744
  22168849.5874  -16917939.25648 -13175624.81046                  22168847.1344
     -2481.7824
  20895214.9404  -16176223.94248 -12815391.12646                  20895211.2924
      -161.1574
  20968917.0484  -16994122.38248 -13489198.48046                  20968914.2484
       742.5544
  21565483.9124  -17254826.27948 -13344215.59846                  21565480.5324
      1063.1154
  24436460.0454   -1574311.23645  -1206093.90242                  24436459.2204
      4059.1944
  22088464.9844  -17202922.83248 -13401473.74046                  22088463.2844
     -1545.8644
 06  6 29  0 41 59.9990000  0  8G 2G27G 4G29G26G10G 9G 8
  20039202.0214  -26487709.80848 -20629235.51747                  20039196.9034
     -1082.9544
  24838644.4664    -321080.23946   -245797.62843                  24838643.0874
     -2708.3644
  22183045.8024  -16843338.84048 -13117494.63646                  22183042.9804
     -2491.6364
  20896159.5904  -16171257.63948 -12811521.27546                  20896156.5324
      -169.9904
  20964713.4244  -17016210.72248 -13506410.17646                  20964711.1264
       729.9954
  21559414.7924  -17286718.98748 -13369067.05446                  21559411.6314
      1063.0324
  24413286.2944   -1696094.73045  -1300990.05542                  24413285.0484
      4059.5854
  22097333.7704  -17156317.44948 -13365157.88546                  22097330.4564
     -1561.1824
 06  6 29  0 42 29.9990000  0  8G 2G27G 4G29G26G10G 9G 8
  20045437.8974  -26454937.82848 -20603698.91147                  20045432.5784
     -1101.5724
  24854120.3344    -239749.80646   -182423.38243                  24854119.8454
     -2713.6134
  22197299.1624  -16768436.19248 -13059128.98046                  22197297.1694
     -2501.7384
  20897156.4114  -16166019.24848 -12807439.40546                  20897153.3114
      -179.0924
  20960583.3914  -17037915.43548 -13523322.95046                  20960580.3354
       717.1484
  21553348.5654  -17318596.82048 -13393906.90446                  21553345.6744
      1062.3394
  24390110.1594   -1817878.57945  -1395886.41842                  24390109.8184
      4059.6044
  22106291.2654  -17109245.15648 -13328478.19546                  22106288.5444
     -1576.8514
 06  6 29  0 42 59.9990000  0  8G 2G27G 4G29G26G10G 9G 8
  20051779.6294  -26421614.41248 -20577732.63047                  20051774.0554
     -1120.0834
  24869625.8304    -158268.96246   -118931.82643                  24869625.2914
     -2718.4184
  22211609.1894  -16693235.86548 -13000531.37446                  22211607.0274
     -2511.7824
  20898204.3454  -16160513.63148 -12803149.31746                  20898200.4724
      -188.0474
  20956525.4264  -17059240.61248 -13539939.94846                  20956522.0904
       704.4294
  21547284.6634  -17350460.91548 -13418736.06246                  21547282.2074
      1061.7684
  24366936.8834   -1939662.28546  -1490782.69643                  24366935.5854
      4059.3364
  22115336.9174  -17061709.99048 -13291437.79045                  22115332.3624
     -1592.2664
 06  6 29  0 43 29.9990000  0  8G 2G27G 4G29G26G10G 9G 8
  20058224.8714  -26387741.83148 -20551338.42247                  20058219.6534
     -1138.1494
  24885158.9114     -76640.82246    -55325.52843                  24885158.2024
     -2723.1894
  22225975.6304  -16617740.92248 -12941704.17246                  22225973.3754
     -2521.2654
  20899302.3224  -16154743.74348 -12798653.29446                  20899298.6124
      -196.6314
  20952539.1024  -17080188.46248 -13556262.95246                  20952536.5014
       692.1294
  21541224.0354  -17382311.40948 -13443554.62246                  21541221.1864
      1061.5674
  24343761.9474   -2061444.67446  -1585677.95043                  24343760.4764
      4059.5174
  22124470.2084  -17013714.28148 -13254038.52446                  22124467.4814
     -1607.3834
 06  6 29  0 43 59.9990000  0  8G 2G27G 4G29G26G10G 9G 8
  20064774.1714  -26353325.15748 -20524520.24347                  20064768.8414
     -1156.0404
  24900720.1044       5128.32146      8390.60043                  24900718.9854
     -2727.6814
  22240396.7194  -16541957.45448 -12882652.16646                  22240393.8564
     -2530.7524
  20900449.6204  -16148715.87247 -12793956.25546                  20900445.6014
      -205.0544
  20948623.5984  -17100764.65648 -13572296.34046                  20948620.5614
       679.9274
  21535165.0624  -17414151.31048 -13468364.93646                  21535161.7484
      1061.3094
  24320587.9104   -2183227.38446  -1680573.46743                  24320585.9934
      4059.6144
  22133690.0304  -16965263.81248 -13216284.92346                  22133688.2214
     -1622.4274
 06  6 29  0 44 29.9990000  0  8G 2G27G 4G29G26G10G 9G 8
  20071427.3704  -26318364.78348 -20497278.41047                  20071421.8864
     -1174.5124
  24916306.9054      87037.07646     72215.58643                  24916304.7384
     -2732.8374
  22254872.0984  -16465886.46448 -12823376.12446                  22254870.5304
     -2540.6494
  20901645.0334  -16142431.18348 -12789059.09946                  20901641.9954
      -213.8674
  20944778.7904  -17120969.68648 -13588040.52746                  20944775.8714
       667.1974
  21529108.6754  -17445978.49148 -13493165.33046                  21529105.5194
      1060.4834
  24297412.7234   -2305006.64746  -1775466.20742                  24297411.4764
      4059.0634
  22142995.8564  -16916359.80948 -13178177.95946                  22142993.4704
     -1637.8124
 06  6 29  0 44 59.9990000  0  8G 2G27G 4G29G26G10G 9G 8
  20078183.5854  -26282858.77848 -20469611.38347                  20078178.3054
     -1192.7054
  24931919.6314     169086.53246    136150.15643                  24931918.3414
     -2737.3344
  22269403.3844  -16389526.77948 -12763875.10646                  22269400.9474
     -2550.2684
  20902890.1444  -16135888.45848 -12783960.87246                  20902887.2034
      -222.3934
  20941004.9254  -17140801.76548 -13603494.08746                  20941001.4954
       654.7854
  21523055.5104  -17477788.38448 -13517952.25846                  21523052.2614
      1060.0104
  24274241.6204   -2426776.56946  -1870351.79743                  24274238.7694
      4058.7944
  22152388.9654  -16867000.48648 -13139716.16446                  22152386.1844
     -1652.9204
 06  6 29  0 45 29.9990000  0  8G 2G27G 4G29G26G10G 9G 8
  20085043.4844  -26246809.87848 -20441521.34247                  20085037.7214
     -1210.5914
  24947559.0064     251272.50746    200191.11944                  24947558.4584
     -2741.6754
  22283988.1894  -16312882.21448 -12704152.12146                  22283985.8904
     -2559.5464
  20904183.9784  -16129091.87248 -12778664.82246                  20904180.1954
      -230.7134
  20937301.2144  -17160264.36648 -13618659.75546                  20937298.6834
       642.7154
  21517004.9674  -17509581.77448 -13542726.33646                  21517001.9304
      1059.5614
  24251071.3144   -2548536.47846  -1965229.47943                  24251069.9294
      4058.6774
  22161867.5714  -16817189.68848 -13100902.54146                  22161863.6064
     -1667.7494
 06  6 29  0 45 59.9990000  0  8G 2G27G 4G29G26G10G 9G 8
  20092005.9974  -26210222.95548 -20413012.05747                  20092000.1194
     -1228.6084
  24963223.7194     333589.86046    264334.48044                  24963222.3994
     -2745.9914
  22298626.5664  -16235958.47048 -12644211.57046                  22298623.9074
     -2568.7894
  20905524.5554  -16122046.77848 -12773175.14346                  20905520.9844
      -239.0094
  20933666.7754  -17179362.44748 -13633541.35746                  20933664.2344
       630.4254
  21510958.3074  -17541360.75448 -13567489.18046                  21510954.8404
      1058.9364
  24227902.4924   -2670287.51346  -2060100.28743                  24227899.9914
      4058.0524
  22171431.5944  -16766932.12847 -13061740.82446                  22171428.7584
     -1682.7494
 06  6 29  0 46 29.9990000  0  7G 2G 4G29G26G10G 9G 8
  20099070.0774  -26173099.51748 -20384084.70847                  20099064.6644
     -1246.4504
  22313317.4544  -16158757.58048 -12584055.07946                  22313314.8834
     -2578.0034
  20906911.7434  -16114755.73148 -12767493.79546                  20906907.9504
      -247.1394
  20930101.6994  -17198097.41848 -13648140.04846                  20930099.1084
       618.4034
  21504913.9944  -17573124.14848 -13592239.89246                  21504910.6734
      1058.4964
  24204735.9004   -2792027.43846  -2154962.47143                  24204734.2254
      4057.7444
  22181079.5524  -16716229.65448 -13022232.42546                  22181076.8004
     -1697.5344
 06  6 29  0 46 59.9990000  0  7G 2G 4G29G26G10G 9G 8
  20106237.5354  -26135433.85848 -20354734.85947                  20106231.9974
     -1264.4784
  22328062.1114  -16081274.50748 -12523678.69546                  22328059.6234
     -2587.4854
  20908346.7114  -16107213.71248 -12761616.90446                  20908343.2734
      -255.5324
  20926607.0274  -17216463.70448 -13662451.43046                  20926604.0904
       606.1524
  21498873.9594  -17604863.74148 -13616972.02746                  21498870.6894
      1057.6424
  24181573.8534   -2913746.64446  -2249808.46244                  24181572.7224
      4057.0654
  22190813.5164  -16665077.37248 -12982373.50646                  22190810.9924
     -1712.6124
 06  6 29  0 47 29.9990000  0  7G 2G 4G29G26G10G 9G 8
  20113507.4154  -26097229.46448 -20324965.19147                  20113501.9194
     -1282.5684
  22342859.1954  -16003513.63348 -12463085.83646                  22342856.5924
     -2596.8124
  20909829.0304  -16099425.13048 -12755547.88046                  20909825.3534
      -263.8484
  20923180.8214  -17234465.48748 -13676478.79746                  20923178.3684
       593.9214
  21492838.2474  -17636580.76248 -13641686.58946                  21492835.5974
      1056.7774
  24158415.8654   -3035444.53447  -2344637.92944                  24158414.0804
      4056.0694
  22200632.0694  -16613479.44048 -12942167.32745                  22200629.2074
     -1727.4464
 06  6 29  0 47 59.9990000  0  7G 2G 4G29G26G10G 9G 8
  20120880.0384  -26058489.02948 -20294777.85047                  20120874.7324
     -1300.1954
  22357709.3004  -15925478.51448 -12402279.28346                  22357706.6704
     -2605.6744
  20911357.0724  -16091393.52347 -12749289.48846                  20911354.1324
      -271.7634
  20919824.3074  -17252105.37348 -13690224.16146                  20919821.6664
       582.0174
  21486807.0264  -17668275.30648 -13666383.62646                  21486804.3764
      1056.1334
  24135260.8014   -3157119.87946  -2439449.82544                  24135259.5454
      4055.5034
  22210535.3954  -16561438.66848 -12901616.09145                  22210532.3434
     -1742.0024
 06  6 29  0 48 29.9990000  0  7G 2G 4G29G26G10G 9G 8
  20128352.8354  -26019217.87948 -20264176.97447                  20128347.7074
     -1318.1984
  22372610.0194  -15847174.63248 -12341263.32546                  22372607.5994
     -2614.8144
  20912930.8334  -16083124.61847 -12742846.17846                  20912927.3294
      -279.8784
  20916535.3064  -17269388.61548 -13703691.62346                  20916532.9174
       569.8734
  21480779.1384  -17699949.75848 -13691065.02146                  21480776.3264
      1055.1564
  24112110.9024   -3278774.15647  -2534245.27944                  24112109.6874
      4054.5124
  22220521.6334  -16508960.51548 -12860724.02146                  22220518.9694
     -1756.8364
 06  6 29  0 48 59.9990000  0  7G 2G 4G29G26G10G 9G 8
  20135927.4874  -25979414.01448 -20233160.99347                  20135921.7674
     -1335.4004
  22387561.7684  -15768601.20548 -12280037.32246                  22387559.2734
     -2623.2674
  20914549.5624  -16074617.46147 -12736217.21646                  20914545.9414
      -287.2224
  20913315.0684  -17286313.65648 -13716879.96246                  20913312.5724
       558.4814
  21474757.1314  -17731599.84648 -13715727.40646                  21474753.5654
      1054.8494
  24088966.3794   -3400401.36246  -2629019.62744                  24088964.4294
      4054.0674
  22230591.2314  -16456043.99847 -12819490.38745                  22230588.6374
     -1770.8694
 06  6 29  0 49 29.9990000  0  7G 2G 4G29G26G10G 9G 8
  20143602.3724  -25939080.51948 -20201732.32147                  20143597.2884
     -1353.2234
  22402564.4094  -15689761.68948 -12218603.99145                  22402561.6794
     -2632.3344
  20916213.2074  -16065875.68848 -12729405.44746                  20916209.6214
      -295.2054
  20910161.7144  -17302883.62648 -13729791.63646                  20910159.2604
       546.5234
  21468738.3924  -17763225.78548 -13740371.01246                  21468735.6134
      1053.8674
  24065826.7464   -3522000.48346  -2723772.09444                  24065825.0104
      4052.8424
  22240743.8304  -16402692.09347 -12777917.47745                  22240740.8904
     -1785.5814
 06  6 29  0 49 59.9990000  0  7G 2G 4G29G26G10G 9G 8
  20151379.1964  -25898213.86448 -20169888.17547                  20151373.4844
     -1371.0604
  22417618.4284  -15610653.48348 -12156961.28345                  22417616.1034
     -2641.3134
  20917921.6714  -16056896.91048 -12722408.98946                  20917918.0714
      -303.1884
  20907076.6944  -17319095.34748 -13742424.13046                  20907073.6864
       534.4384
  21462726.0104  -17794821.43348 -13764991.00046                  21462722.7414
      1052.7394
  24042693.9674   -3643564.35446  -2818497.08544                  24042691.9444
      4051.6654
  22250979.0624  -16348901.84447 -12736003.01045                  22250977.4104
     -1800.1714
 06  6 29  0 50 29.9990000  0  7G 2G 4G29G26G10G 9G 8
  20159257.6654  -25856812.37348 -20137627.28647                  20159252.4814
     -1389.0194
  22432723.5944  -15531275.04348 -12095108.00745                  22432720.9494
     -2650.4544
  20919676.0344  -16047679.41748 -12715226.53346                  20919672.0034
      -311.2354
  20904059.9044  -17334946.65248 -13754775.80546                  20904057.5604
       522.3004
  21456720.3174  -17826381.98048 -13789583.64946                  21456717.2454
      1051.3044
  24019567.3524   -3765086.60046  -2913189.66044                  24019566.8924
      4050.0394
  22261299.7784  -16294671.90248 -12693745.92945                  22261296.8184
     -1815.0244
 06  6 29  0 50 59.9990000  0  7G 2G 4G29G26G10G 9G 8
  20167236.1604  -25814885.23548 -20104956.80047                  20167230.9974
     -1406.2404
  22447878.4314  -15451636.63348 -12033052.16346                  22447876.7494
     -2658.8284
  20921473.0564  -16038233.70348 -12707866.23446                  20921469.6694
      -318.5504
  20901110.9504  -17350447.50748 -13766854.38646                  20901107.5964
       510.9774
  21450720.1954  -17857914.20948 -13814154.22746                  21450717.2314
      1050.7374
  23996450.9104   -3886572.71246  -3007854.12944                  23996448.9124
      4049.0144
  22271700.8734  -16240012.00348 -12651153.83045                  22271697.9134
     -1829.0824
 06  6 29  0 51 29.9990000  0  7G 2G 4G29G26G10G 9G 8
  20175312.5994  -25772442.22348 -20071884.33747                  20175307.6994
     -1423.6134
  22463080.6384  -15371748.53548 -11970801.74745                  22463078.1794
     -2667.3344
  20923312.5094  -16028569.80148 -12700335.93146                  20923308.2174
      -326.0554
  20898225.2164  -17365607.52048 -13778667.39047                  20898222.3414
       499.3754
  21444724.0834  -17889424.92948 -13838708.03646                  21444720.8224
      1049.7124
  23973338.5154   -4008028.10747  -3102494.64244                  23973336.0524
      4047.7054
  22282181.8654  -16184932.15147 -12608234.47445                  22282179.4934
     -1843.2764
 06  6 29  0 51 59.9990000  0  7G 2G 4G29G26G10G 9G 8
  20183489.3514  -25729475.71648 -20038403.95047                  20183483.7884
     -1440.9334
  22478331.3144  -15291603.79647 -11908351.34845                  22478329.8544
     -2675.7674
  20925194.3424  -16018681.22348 -12692630.55146                  20925190.1864
      -333.3254
  20895407.4624  -17380419.31648 -13790209.04846                  20895404.3614
       487.8864
  21438733.7194  -17920903.79548 -13863237.02446                  21438730.1864
      1048.7404
  23950234.0554   -4129441.37646  -3197102.30044                  23950232.8654
      4046.4264
  22292744.5184  -16129425.61147 -12564982.64046                  22292742.2604
     -1857.3734
 06  6 29  0 52 29.9990000  0  7G 2G 4G29G26G10G 9G 8
  20191765.5784  -25685983.25148 -20004513.73047                  20191760.0274
     -1458.3794
  22493631.5424  -15211200.62648 -11845699.54945                  22493629.5614
     -2684.2824
  20927119.2124  -16008565.82648 -12684748.41646                  20927115.0594
      -340.8454
  20892655.2854  -17394880.55048 -13801477.54146                  20892652.0854
       476.4114
  21432750.2634  -17952345.56848 -13887737.11946                  21432747.2864
      1047.5054
  23927138.8274   -4250806.10646  -3291672.17344                  23927137.4904
      4044.7024
  22303388.7974  -16073489.94547 -12521396.42845                  22303386.6734
     -1871.6024
 06  6 29  0 52 59.9990000  0  7G 2G 4G29G26G10G 9G 8
  20200141.6304  -25641968.02848 -19970216.16147                  20200136.4544
     -1475.8794
  22508980.8784  -15130542.47247 -11782849.09045                  22508978.7134
     -2692.9444
  20929086.4074  -15998227.05948 -12676692.21546                  20929082.2084
      -348.3354
  20889969.1174  -17408993.94847 -13812474.98646                  20889966.4784
       464.5854
  21426774.0134  -17983750.25948 -13912208.31946                  21426770.9534
      1046.0844
  23904052.6354   -4372120.96846  -3386203.13544                  23904052.5254
      4042.8134
  22314114.1184  -16017128.50247 -12477478.44145                  22314112.4024
     -1885.8894
 06  6 29  0 53 29.9990000  0  8G 2G28G 4G29G26G10G 9G 8
  20208617.6544  -25597424.79848 -19935507.17247                  20208611.8464
     -1493.2724
  24555505.8464     -21840.47146    -11644.10143                  24555504.3364
       989.1414
  22524378.6044  -15049624.64347 -11719796.30145                  22524377.4524
     -2701.3184
  20931097.3254  -15987660.34548 -12668458.41746                  20931092.7794
      -355.6694
  20887350.7464  -17422754.46948 -13823197.47446                  20887347.6894
       453.1104
  21420806.9964  -18015109.62248 -13936644.16846                  21420803.9124
      1044.8294
  23880978.8754   -4493376.28346  -3480687.77044                  23880977.7624
      4041.1234
  22324921.0354  -15960336.48947 -12433224.94345                  22324918.7714
     -1899.8884
 06  6 29  0 53 59.9990000  0  8G 2G28G 4G29G26G10G 9G 8
  20217191.8244  -25552367.36148 -19900397.48647                  20217185.8704
     -1510.6204
  24549870.7364     -51450.00146    -34716.54643                  24549868.4014
       984.9224
  22539824.3954  -14968461.39548 -11656552.27946                  22539822.0724
     -2709.5854
  20933148.7964  -15976880.11148 -12660058.22846                  20933143.9444
      -363.0084
  20884796.3064  -17436176.09047 -13833655.87446                  20884793.8304
       441.6854
  21414845.8604  -18046434.54148 -13961053.18646                  21414842.7184
      1043.4964
  23857914.4824   -4614581.21446  -3575133.06044                  23857913.3604
      4039.1364
  22335807.7524  -15903127.80147 -12388646.76446                  22335805.7464
     -1913.9704
 06  6 29  0 54 29.9990000  0  8G 2G28G 4G29G26G10G 9G 8
  20225864.4264  -25506792.19048 -19864884.37847                  20225858.9774
     -1527.7984
  24544261.6234     -80930.80646    -57688.54342                  24544259.1214
       980.5424
  22555316.1084  -14887050.09048 -11593114.93345                  22555313.5694
     -2717.7684
  20935241.0794  -15965883.68148 -12651489.58546                  20935237.3724
      -370.1274
  20882307.9374  -17449255.56048 -13843847.65346                  20882305.2614
       430.2834
  21408892.7304  -18077718.73748 -13985430.49146                  21408889.5154
      1042.1294
  23834861.0624   -4735728.94046  -3669533.88744                  23834859.5304
      4037.3054
  22346774.0574  -15845499.83347 -12343741.86346                  22346771.6014
     -1927.8764
 06  6 29  0 54 59.9990000  0  8G 2G28G 4G29G26G10G 9G 8
  20234635.6974  -25460700.74748 -19828968.97947                  20234630.0104
     -1544.7714
  24538675.7714    -110280.84846    -80558.62143                  24538673.4664
       976.2404
  22570855.2714  -14805392.53848 -11529485.73845                  22570852.6844
     -2725.8354
  20937374.2864  -15954672.74248 -12642753.80246                  20937370.1774
      -377.0264
  20879883.7794  -17461994.24248 -13853773.91446                  20879880.8874
       419.1364
  21402947.6644  -18108960.50848 -14009774.73247                  21402944.2734
      1040.8404
  23811819.1624   -4856816.19646  -3763887.53544                  23811817.2964
      4035.4644
  22357819.5664  -15787454.56047 -12298511.81646                  22357818.4904
     -1941.6074
 06  6 29  0 55 29.9990000  0  8G 2G28G 4G29G26G10G 9G 8
  20243502.7304  -25414103.13848 -19792659.17347                  20243496.7534
     -1561.6554
  24533115.6224    -139505.33746   -103330.97843                  24533111.3184
       972.1094
  22586438.9444  -14723499.18347 -11465672.79445                  22586436.9324
     -2733.6334
  20939546.5024  -15943257.78248 -12633859.02746                  20939542.5024
      -383.8624
  20877522.3674  -17474401.93647 -13863442.24346                  20877520.3324
       408.1454
  21397009.2894  -18140166.40348 -14034091.00446                  21397006.2344
      1039.6584
  23788786.5544   -4977848.85547  -3858198.60245                  23788785.3954
      4033.4674
  22368942.5934  -15729001.78147 -12252964.23145                  22368940.4694
     -1955.1564
 06  6 29  0 55 59.9990000  0  8G 2G28G 4G29G26G10G 9G 8
  20252466.5204  -25366996.49048 -19755952.72447                  20252461.1934
     -1578.5404
  24527577.4774    -168597.79046   -126000.34643                  24527575.4824
       967.6474
  22602067.9154  -14641367.43847 -11401674.06245                  22602066.1484
     -2741.5334
  20941758.4164  -15931636.23348 -12624803.28446                  20941754.2404
      -390.6544
  20875225.3184  -17486475.83748 -13872850.47946                  20875222.6014
       397.0264
  21391079.2674  -18171330.62748 -14058374.81046                  21391075.6194
      1038.1694
  23765766.7014   -5098819.16747  -3952461.14345                  23765765.7114
      4031.4114
  22380144.2814  -15670138.59647 -12207096.80945                  22380141.6114
     -1968.7314
 06  6 29  0 56 29.9990000  0  8G 2G28G 4G29G26G10G 9G 8
  20261527.2664  -25319381.98648 -19718850.51747                  20261521.3544
     -1595.4884
  24522067.4874    -197556.08446   -148565.23842                  24522064.8974
       962.9154
  22617741.8234  -14558999.72247 -11337491.48645                  22617740.2504
     -2749.3654
  20944008.4154  -15919810.44148 -12615588.36246                  20944004.3524
      -397.5204
  20872990.6124  -17498217.79648 -13882000.04646                  20872987.9994
       385.9334
  21385156.7224  -18202452.15048 -14082625.33547                  21385153.6024
      1036.7194
  23742759.4304   -5219725.10347  -4046673.48244                  23742757.5994
      4029.1024
  22391423.4604  -15610867.49947 -12160911.57846                  22391422.4934
     -1982.3934
 06  6 29  0 56 59.9990000  0  8G 2G28G 4G29G26G10G 9G 8
  20270684.5314  -25271261.73748 -19681354.25047                  20270679.3954
     -1612.4854
  24516583.5714    -226377.45546   -171023.37543                  24516580.7644
       958.4184
  22633461.0034  -14476397.92247 -11273126.49845                  22633458.2544
     -2757.3784
  20946297.4234  -15907782.27548 -12606215.78346                  20946293.2144
      -404.3904
  20870819.3104  -17509629.12748 -13890892.00646                  20870816.3794
       374.7614
  21379242.9034  -18233529.07448 -14106841.12047                  21379240.0614
      1034.9814
  23719764.1804   -5340563.73847  -4140833.36545                  23719762.9144
      4026.6754
  22402778.6984  -15551190.45747 -12114410.02945                  22402776.3554
     -1996.1774
 06  6 29  0 57 29.9990000  0  8G 2G28G 4G29G26G10G 9G 8
  20279937.3084  -25222635.68348 -19643463.84047                  20279932.6034
     -1629.4394
  24511124.9734    -255058.26746   -193372.04443                  24511122.9514
       953.4284
  22649224.0074  -14393562.54447 -11208579.50645                  22649221.7344
     -2765.2104
  20948624.9964  -15895552.24948 -12596685.88846                  20948620.5284
      -411.1574
  20868710.1864  -17520709.91548 -13899526.36646                  20868707.3814
       363.7404
  21373338.0214  -18264558.48948 -14131019.89047                  21373335.7734
      1033.3454
  23696783.2634   -5461330.48846  -4234937.29744                  23696781.1204
      4024.1454
  22414212.4784  -15491107.74047 -12067592.34945                  22414209.9524
     -2009.6484
 06  6 29  0 57 59.9990000  0  8G 2G28G 4G29G26G10G 9G 8
  20289287.4324  -25173503.78648 -19605179.26047                  20289282.1274
     -1645.8944
  24505695.3094    -283594.40946   -215607.96543                  24505692.7584
       949.0774
  22665031.1384  -14310494.29747 -11143851.07145                  22665029.4264
     -2772.5784
  20950990.1014  -15883120.80948 -12586999.04846                  20950986.5424
      -417.4224
  20866664.9874  -17531460.13348 -13907903.15546                  20866662.0584
       353.0664
  21367443.3814  -18295537.13348 -14155159.10547                  21367440.3904
      1031.9344
  23673817.0414   -5582020.82547  -4328981.64845                  23673814.6504
      4021.9444
  22425723.4294  -15430619.41247 -12020458.60546                  22425721.1634
     -2022.7644
 06  6 29  0 58 29.9990000  0  8G 2G28G 4G29G26G10G 9G 8
  20298731.3574  -25123875.45548 -19566507.85047                  20298726.1124
     -1662.3544
  24500291.6764    -311991.37046   -237735.53443                  24500289.3504
       944.2724
  22680880.8694  -14227202.56447 -11078948.48845                  22680879.4304
     -2779.9374
  20953392.4694  -15870497.68248 -12577162.84846                  20953388.3034
      -423.7944
  20864680.5274  -17541889.17648 -13916029.67846                  20864677.7084
       342.3934
  21361556.8094  -18326471.22648 -14179263.60047                  21361553.1944
      1030.4494
  23650863.5364   -5702639.91646  -4422970.50244                  23650861.8844
      4019.5464
  22437309.1694  -15369735.42347 -11973016.55946                  22437307.2024
     -2035.9284
 06  6 29  0 58 59.9990000  0  8G 2G28G 4G29G26G10G 9G 8
  20308269.7844  -25073748.56948 -19527447.95347                  20308265.0634
     -1679.2634
  24494915.0454    -340242.80946   -259749.50143                  24494913.1544
       939.2044
  22696773.7864  -14143685.83747 -11013870.57745                  22696771.7574
     -2787.6614
  20955831.5414  -15857681.08348 -12567175.89346                  20955826.9834
      -430.4934
  20862757.1054  -17551994.91948 -13923904.28746                  20862754.3384
       331.4114
  21355679.5054  -18357355.14548 -14203329.00847                  21355676.6034
      1028.6134
  23627925.0894   -5823181.00346  -4516898.50044                  23627923.6734
      4016.5974
  22448970.9414  -15308453.80047 -11925264.66046                  22448968.2924
     -2049.3804
